Wetterdaten: aktuell Mittwoch, 14.04.2021 22:06
Datum Zeit Temp. Aussen Temp. o. S. Temp +5cm Feuchte Auss Luftdruck Regen Sonnenschein Regendauer Solar Windben Empfang
14.04.2021 22:06 5,0 C 3,9 C 1,7 C 80 % 1030,4 hPa 0,0 l/m 0 min 0 min 0 W/m 0,0 km/h (0 Bft) 100,00 %
14.04.2021 22:04 5,1 C 3,9 C 1,7 C 80 % 1030,5 hPa 0,0 l/m 0 min 0 min 0 W/m 0,0 km/h (0 Bft) 100,00 %
14.04.2021 22:02 5,1 C 3,9 C 1,7 C 80 % 1030,4 hPa 0,0 l/m 0 min 0 min 0 W/m 0,0 km/h (0 Bft) 100,00 %
14.04.2021 22:00 5,1 C 3,9 C 1,7 C 80 % 1030,4 hPa 0,0 l/m 0 min 0 min 0 W/m 3,2 km/h (1 Bft) 100,00 %
14.04.2021 21:58 5,2 C 3,9 C 1,7 C 80 % 1030,4 hPa 0,0 l/m 0 min 0 min 0 W/m 3,2 km/h (1 Bft) 97,87 %
14.04.2021 21:56 5,3 C 3,9 C 1,7 C 79 % 1030,4 hPa 0,0 l/m 0 min 0 min 0 W/m 0,0 km/h (0 Bft) 100,00 %
14.04.2021 21:54 5,3 C 4,4 C 1,7 C 79 % 1030,4 hPa 0,0 l/m 0 min 0 min 0 W/m 3,2 km/h (1 Bft) 100,00 %
14.04.2021 21:52 5,3 C 4,4 C 1,7 C 79 % 1030,4 hPa 0,0 l/m 0 min 0 min 0 W/m 0,0 km/h (0 Bft) 100,00 %
14.04.2021 21:50 5,4 C 4,4 C 1,7 C 78 % 1030,4 hPa 0,0 l/m 0 min 0 min 0 W/m 3,2 km/h (1 Bft) 100,00 %
14.04.2021 21:48 5,4 C 4,4 C 2,3 C 78 % 1030,4 hPa 0,0 l/m 0 min 0 min 0 W/m 3,2 km/h (1 Bft) 100,00 %
14.04.2021 21:46 5,5 C 4,4 C 2,3 C 78 % 1030,4 hPa 0,0 l/m 0 min 0 min 0 W/m 6,4 km/h (2 Bft) 97,87 %
14.04.2021 21:44 5,5 C 4,4 C 2,3 C 78 % 1030,4 hPa 0,0 l/m 0 min 0 min 0 W/m 6,4 km/h (2 Bft) 100,00 %
14.04.2021 21:42 5,5 C 4,4 C 2,3 C 78 % 1030,4 hPa 0,0 l/m 0 min 0 min 0 W/m 0,0 km/h (0 Bft) 100,00 %
14.04.2021 21:40 5,5 C 4,4 C 2,3 C 77 % 1030,4 hPa 0,0 l/m 0 min 0 min 0 W/m 3,2 km/h (1 Bft) 100,00 %
14.04.2021 21:38 5,6 C 4,4 C 2,3 C 77 % 1030,4 hPa 0,0 l/m 0 min 0 min 0 W/m 6,4 km/h (2 Bft) 100,00 %
14.04.2021 21:36 5,6 C 4,4 C 2,3 C 77 % 1030,3 hPa 0,0 l/m 0 min 0 min 0 W/m 3,2 km/h (1 Bft) 100,00 %
14.04.2021 21:34 5,6 C 4,4 C 2,3 C 76 % 1030,3 hPa 0,0 l/m 0 min 0 min 0 W/m 6,4 km/h (2 Bft) 100,00 %
14.04.2021 21:32 5,7 C 5,0 C 2,3 C 76 % 1030,4 hPa 0,0 l/m 0 min 0 min 0 W/m 6,4 km/h (2 Bft) 100,00 %
14.04.2021 21:30 5,7 C 5,0 C 2,3 C 75 % 1030,4 hPa 0,0 l/m 0 min 0 min 0 W/m 9,7 km/h (2 Bft) 100,00 %
14.04.2021 21:28 5,8 C 5,0 C 2,8 C 75 % 1030,3 hPa 0,0 l/m 0 min 0 min 0 W/m 3,2 km/h (1 Bft) 100,00 %
14.04.2021 21:26 5,8 C 5,0 C 2,8 C 75 % 1030,3 hPa 0,0 l/m 0 min 0 min 0 W/m 0,0 km/h (0 Bft) 100,00 %
14.04.2021 21:24 5,8 C 5,0 C 2,8 C 75 % 1030,2 hPa 0,0 l/m 0 min 0 min 0 W/m 0,0 km/h (0 Bft) 100,00 %
14.04.2021 21:22 5,8 C 5,0 C 2,8 C 75 % 1030,2 hPa 0,0 l/m 0 min 0 min 0 W/m 0,0 km/h (0 Bft) 100,00 %
14.04.2021 21:20 5,8 C 5,0 C 2,8 C 75 % 1030,1 hPa 0,0 l/m 0 min 0 min 0 W/m 0,0 km/h (0 Bft) 97,87 %
14.04.2021 21:18 5,8 C 5,0 C 2,8 C 75 % 1030,2 hPa 0,0 l/m 0 min 0 min 0 W/m 0,0 km/h (0 Bft) 97,87 %
14.04.2021 21:16 5,8 C 5,0 C 2,8 C 75 % 1030,1 hPa 0,0 l/m 0 min 0 min 0 W/m 0,0 km/h (0 Bft) 97,83 %
14.04.2021 21:14 5,8 C 5,0 C 2,8 C 75 % 1030,2 hPa 0,0 l/m 0 min 0 min 0 W/m 0,0 km/h (0 Bft) 97,87 %
14.04.2021 21:12 5,8 C 5,0 C 2,8 C 75 % 1030,1 hPa 0,0 l/m 0 min 0 min 0 W/m 0,0 km/h (0 Bft) 97,87 %
14.04.2021 21:10 5,8 C 5,0 C 2,8 C 75 % 1030,2 hPa 0,0 l/m 0 min 0 min 0 W/m 0,0 km/h (0 Bft) 95,83 %
14.04.2021 21:08 5,8 C 5,0 C 2,8 C 75 % 1030,2 hPa 0,0 l/m 0 min 0 min 0 W/m 3,2 km/h (1 Bft) 97,92 %
14.04.2021 21:06 5,8 C 5,0 C 2,8 C 75 % 1030,2 hPa 0,0 l/m 0 min 0 min 0 W/m 0,0 km/h (0 Bft) 97,83 %
14.04.2021 21:04 5,8 C 5,0 C 2,8 C 74 % 1030,1 hPa 0,0 l/m 0 min 0 min 0 W/m 3,2 km/h (1 Bft) 97,87 %
14.04.2021 21:02 5,8 C 5,0 C 2,8 C 74 % 1030,1 hPa 0,0 l/m 0 min 0 min 0 W/m 3,2 km/h (1 Bft) 93,62 %
14.04.2021 21:00 5,8 C 5,0 C 2,8 C 74 % 1030,1 hPa 0,0 l/m 0 min 0 min 0 W/m 3,2 km/h (1 Bft) 95,74 %
14.04.2021 20:58 5,9 C 5,0 C 2,8 C 74 % 1030,1 hPa 0,0 l/m 0 min 0 min 0 W/m 3,2 km/h (1 Bft) 97,87 %
14.04.2021 20:56 5,9 C 5,0 C 2,8 C 74 % 1030,0 hPa 0,0 l/m 0 min 0 min 0 W/m 3,2 km/h (1 Bft) 97,92 %
14.04.2021 20:54 6,0 C 5,0 C 2,8 C 73 % 1030,0 hPa 0,0 l/m 0 min 0 min 0 W/m 3,2 km/h (1 Bft) 97,83 %
14.04.2021 20:52 6,0 C 5,6 C 2,8 C 73 % 1030,0 hPa 0,0 l/m 0 min 0 min 0 W/m 3,2 km/h (1 Bft) 93,62 %
14.04.2021 20:50 6,0 C 5,6 C 2,8 C 72 % 1030,1 hPa 0,0 l/m 0 min 0 min 0 W/m 3,2 km/h (1 Bft) 97,87 %
14.04.2021 20:48 6,0 C 5,6 C 2,8 C 72 % 1030,0 hPa 0,0 l/m 0 min 0 min 0 W/m 3,2 km/h (1 Bft) 100,00 %
14.04.2021 20:46 6,0 C 5,6 C 2,8 C 71 % 1030,0 hPa 0,0 l/m 0 min 0 min 0 W/m 9,7 km/h (2 Bft) 100,00 %
14.04.2021 20:44 6,0 C 5,6 C 2,8 C 71 % 1030,0 hPa 0,0 l/m 0 min 0 min 0 W/m 6,4 km/h (2 Bft) 100,00 %
14.04.2021 20:42 6,0 C 5,6 C 2,8 C 71 % 1030,0 hPa 0,0 l/m 0 min 0 min 0 W/m 6,4 km/h (2 Bft) 95,65 %
14.04.2021 20:40 6,0 C 5,6 C 2,8 C 71 % 1030,0 hPa 0,0 l/m 0 min 0 min 0 W/m 6,4 km/h (2 Bft) 100,00 %
14.04.2021 20:38 6,1 C 5,6 C 2,8 C 71 % 1029,9 hPa 0,0 l/m 0 min 0 min 0 W/m 9,7 km/h (2 Bft) 96,15 %
14.04.2021 20:36 6,1 C 5,6 C 2,8 C 71 % 1029,9 hPa 0,0 l/m 0 min 0 min 0 W/m 9,7 km/h (2 Bft) 97,96 %
14.04.2021 20:34 6,1 C 5,6 C 2,8 C 70 % 1029,8 hPa 0,0 l/m 0 min 0 min 0 W/m 12,9 km/h (3 Bft) 97,87 %
14.04.2021 20:32 6,1 C 5,6 C 2,8 C 70 % 1029,8 hPa 0,0 l/m 0 min 0 min 0 W/m 6,4 km/h (2 Bft) 97,92 %
14.04.2021 20:30 6,1 C 5,6 C 3,4 C 69 % 1029,8 hPa 0,0 l/m 0 min 0 min 0 W/m 6,4 km/h (2 Bft) 97,83 %
14.04.2021 20:28 6,1 C 5,6 C 3,4 C 69 % 1029,8 hPa 0,0 l/m 0 min 0 min 0 W/m 3,2 km/h (1 Bft) 97,87 %
14.04.2021 20:26 6,1 C 5,6 C 3,4 C 69 % 1029,7 hPa 0,0 l/m 0 min 0 min 0 W/m 6,4 km/h (2 Bft) 97,87 %
14.04.2021 20:24 6,2 C 5,6 C 3,4 C 69 % 1029,7 hPa 0,0 l/m 0 min 0 min 0 W/m 6,4 km/h (2 Bft) 97,87 %
14.04.2021 20:22 6,2 C 5,6 C 3,4 C 68 % 1029,7 hPa 0,0 l/m 0 min 0 min 0 W/m 6,4 km/h (2 Bft) 95,74 %
14.04.2021 20:20 6,3 C 5,6 C 3,4 C 68 % 1029,7 hPa 0,0 l/m 0 min 0 min 5 W/m 16,1 km/h (3 Bft) 95,74 %
14.04.2021 20:18 6,3 C 6,1 C 3,4 C 69 % 1029,7 hPa 0,0 l/m 0 min 0 min 5 W/m 19,3 km/h (3 Bft) 95,65 %
14.04.2021 20:16 6,3 C 6,1 C 3,4 C 69 % 1029,7 hPa 0,0 l/m 0 min 0 min 7 W/m 9,7 km/h (2 Bft) 97,92 %
14.04.2021 20:14 6,3 C 6,1 C 3,4 C 70 % 1029,7 hPa 0,0 l/m 0 min 0 min 8 W/m 12,9 km/h (3 Bft) 97,87 %
14.04.2021 20:12 6,3 C 6,1 C 3,4 C 70 % 1029,7 hPa 0,0 l/m 0 min 0 min 10 W/m 9,7 km/h (2 Bft) 97,87 %
14.04.2021 20:10 6,3 C 6,1 C 3,4 C 72 % 1029,6 hPa 0,0 l/m 0 min 0 min 12 W/m 9,7 km/h (2 Bft) 97,87 %
14.04.2021 20:08 6,3 C 6,1 C 3,4 C 72 % 1029,6 hPa 0,0 l/m 0 min 0 min 15 W/m 3,2 km/h (1 Bft) 97,87 %
14.04.2021 20:06 6,4 C 6,1 C 3,4 C 72 % 1029,6 hPa 0,0 l/m 0 min 0 min 18 W/m 6,4 km/h (2 Bft) 97,87 %
14.04.2021 20:04 6,4 C 6,1 C 3,4 C 71 % 1029,6 hPa 0,0 l/m 0 min 0 min 21 W/m 6,4 km/h (2 Bft) 95,74 %
14.04.2021 20:02 6,4 C 6,1 C 3,4 C 70 % 1029,6 hPa 0,0 l/m 0 min 0 min 27 W/m 6,4 km/h (2 Bft) 97,87 %
14.04.2021 20:00 6,5 C 6,1 C 3,4 C 70 % 1029,6 hPa 0,0 l/m 2 min 0 min 32 W/m 6,4 km/h (2 Bft) 56,52 %
14.04.2021 19:58 6,5 C 6,1 C 3,4 C 69 % 1029,5 hPa 0,0 l/m 2 min 0 min 34 W/m 6,4 km/h (2 Bft) 97,87 %
14.04.2021 19:56 6,6 C 6,1 C 3,4 C 69 % 1029,5 hPa 0,0 l/m 2 min 0 min 36 W/m 9,7 km/h (2 Bft) 97,83 %
14.04.2021 19:54 6,7 C 6,1 C 3,4 C 68 % 1029,5 hPa 0,0 l/m 0 min 0 min 37 W/m 19,3 km/h (3 Bft) 97,87 %
14.04.2021 19:52 6,8 C 6,1 C 3,4 C 68 % 1029,5 hPa 0,0 l/m 0 min 0 min 37 W/m 16,1 km/h (3 Bft) 97,87 %
14.04.2021 19:50 6,9 C 6,1 C 3,9 C 67 % 1029,6 hPa 0,0 l/m 0 min 0 min 39 W/m 6,4 km/h (2 Bft) 97,56 %
14.04.2021 19:48 6,9 C 6,1 C 3,9 C 66 % 1029,5 hPa 0,0 l/m 0 min 0 min 40 W/m 12,9 km/h (3 Bft) 97,87 %
14.04.2021 19:46 7,0 C 6,1 C 3,9 C 65 % 1029,6 hPa 0,0 l/m 0 min 0 min 40 W/m 19,3 km/h (3 Bft) 95,74 %
14.04.2021 19:44 7,0 C 6,7 C 3,9 C 66 % 1029,5 hPa 0,0 l/m 0 min 0 min 40 W/m 22,5 km/h (4 Bft) 97,87 %
14.04.2021 19:42 7,1 C 6,7 C 3,9 C 66 % 1029,5 hPa 0,0 l/m 0 min 0 min 37 W/m 16,1 km/h (3 Bft) 100,00 %
14.04.2021 19:40 7,3 C 6,7 C 3,9 C 66 % 1029,5 hPa 0,0 l/m 0 min 0 min 33 W/m 19,3 km/h (3 Bft) 100,00 %
14.04.2021 19:38 7,4 C 6,7 C 3,9 C 66 % 1029,5 hPa 0,0 l/m 0 min 0 min 30 W/m 22,5 km/h (4 Bft) 100,00 %
14.04.2021 19:36 7,5 C 6,7 C 3,9 C 66 % 1029,5 hPa 0,0 l/m 0 min 0 min 30 W/m 9,7 km/h (2 Bft) 97,87 %
14.04.2021 19:34 7,6 C 6,7 C 4,5 C 65 % 1029,5 hPa 0,0 l/m 0 min 0 min 32 W/m 25,7 km/h (4 Bft) 100,00 %
14.04.2021 19:32 7,8 C 7,2 C 4,5 C 65 % 1029,5 hPa 0,0 l/m 0 min 0 min 34 W/m 19,3 km/h (3 Bft) 97,87 %
14.04.2021 19:30 7,9 C 7,2 C 4,5 C 64 % 1029,4 hPa 0,0 l/m 0 min 0 min 38 W/m 19,3 km/h (3 Bft) 97,87 %
14.04.2021 19:28 8,0 C 7,2 C 5,0 C 62 % 1029,4 hPa 0,0 l/m 0 min 0 min 44 W/m 22,5 km/h (4 Bft) 93,48 %
14.04.2021 19:26 8,1 C 7,8 C 5,0 C 60 % 1029,4 hPa 0,0 l/m 0 min 0 min 50 W/m 25,7 km/h (4 Bft) 97,87 %
14.04.2021 19:24 8,1 C 7,8 C 5,0 C 58 % 1029,3 hPa 0,0 l/m 0 min 0 min 55 W/m 12,9 km/h (3 Bft) 97,92 %
14.04.2021 19:22 8,1 C 7,8 C 5,0 C 58 % 1029,3 hPa 0,0 l/m 0 min 0 min 55 W/m 9,7 km/h (2 Bft) 97,87 %
14.04.2021 19:20 8,2 C 7,8 C 5,0 C 58 % 1029,3 hPa 0,0 l/m 0 min 0 min 51 W/m 12,9 km/h (3 Bft) 95,74 %
14.04.2021 19:18 8,3 C 7,8 C 5,0 C 59 % 1029,3 hPa 0,0 l/m 0 min 0 min 48 W/m 9,7 km/h (2 Bft) 95,74 %
14.04.2021 19:16 8,3 C 7,8 C 5,0 C 59 % 1029,3 hPa 0,0 l/m 0 min 0 min 50 W/m 6,4 km/h (2 Bft) 95,74 %
14.04.2021 19:14 8,3 C 7,8 C 5,0 C 59 % 1029,3 hPa 0,0 l/m 0 min 0 min 51 W/m 9,7 km/h (2 Bft) 95,74 %
14.04.2021 19:12 8,4 C 8,3 C 5,6 C 58 % 1029,3 hPa 0,0 l/m 0 min 0 min 55 W/m 6,4 km/h (2 Bft) 95,83 %
14.04.2021 19:10 8,4 C 8,3 C 5,6 C 59 % 1029,3 hPa 0,0 l/m 0 min 0 min 59 W/m 3,2 km/h (1 Bft) 95,74 %
14.04.2021 19:08 8,4 C 8,3 C 5,6 C 58 % 1029,3 hPa 0,0 l/m 0 min 0 min 65 W/m 6,4 km/h (2 Bft) 93,48 %
14.04.2021 19:06 8,4 C 8,9 C 5,6 C 58 % 1029,3 hPa 0,0 l/m 0 min 0 min 69 W/m 6,4 km/h (2 Bft) 95,83 %
14.04.2021 19:04 8,4 C 8,9 C 5,6 C 59 % 1029,3 hPa 0,0 l/m 0 min 0 min 69 W/m 9,7 km/h (2 Bft) 95,83 %
14.04.2021 19:02 8,5 C 8,9 C 5,6 C 59 % 1029,3 hPa 0,0 l/m 0 min 0 min 69 W/m 12,9 km/h (3 Bft) 95,83 %
14.04.2021 19:00 8,5 C 8,9 C 5,6 C 58 % 1029,4 hPa 0,0 l/m 0 min 0 min 70 W/m 6,4 km/h (2 Bft) 97,56 %
14.04.2021 18:58 8,6 C 8,9 C 5,6 C 58 % 1029,4 hPa 0,0 l/m 0 min 0 min 70 W/m 3,2 km/h (1 Bft) 97,87 %
14.04.2021 18:56 8,8 C 8,9 C 5,6 C 58 % 1029,4 hPa 0,0 l/m 0 min 0 min 72 W/m 6,4 km/h (2 Bft) 97,87 %
14.04.2021 18:54 8,9 C 8,9 C 5,6 C 56 % 1029,4 hPa 0,0 l/m 0 min 0 min 70 W/m 3,2 km/h (1 Bft) 97,87 %
14.04.2021 18:52 9,1 C 8,9 C 5,6 C 56 % 1029,4 hPa 0,0 l/m 0 min 0 min 68 W/m 3,2 km/h (1 Bft) 95,65 %
14.04.2021 18:50 9,3 C 8,9 C 5,6 C 55 % 1029,4 hPa 0,0 l/m 0 min 0 min 64 W/m 9,7 km/h (2 Bft) 97,87 %
14.04.2021 18:48 9,5 C 8,9 C 5,6 C 54 % 1029,4 hPa 0,0 l/m 0 min 0 min 63 W/m 3,2 km/h (1 Bft) 97,87 %
14.04.2021 18:46 9,5 C 8,9 C 6,1 C 54 % 1029,4 hPa 0,0 l/m 0 min 0 min 60 W/m 6,4 km/h (2 Bft) 97,87 %
14.04.2021 18:44 9,6 C 9,4 C 6,1 C 53 % 1029,4 hPa 0,0 l/m 0 min 0 min 56 W/m 6,4 km/h (2 Bft) 95,74 %
14.04.2021 18:42 9,9 C 9,4 C 6,1 C 53 % 1029,4 hPa 0,0 l/m 0 min 0 min 70 W/m 6,4 km/h (2 Bft) 97,87 %
14.04.2021 18:40 10,0 C 10,0 C 7,3 C 53 % 1029,4 hPa 0,0 l/m 0 min 0 min 69 W/m 12,9 km/h (3 Bft) 97,83 %
14.04.2021 18:38 10,1 C 11,1 C 7,3 C 52 % 1029,4 hPa 0,0 l/m 0 min 0 min 72 W/m 6,4 km/h (2 Bft) 97,87 %
14.04.2021 18:36 10,3 C 12,2 C 7,3 C 51 % 1029,4 hPa 0,0 l/m 0 min 0 min 78 W/m 9,7 km/h (2 Bft) 97,87 %
14.04.2021 18:34 10,5 C 13,9 C 7,3 C 52 % 1029,4 hPa 0,0 l/m 0 min 0 min 87 W/m 12,9 km/h (3 Bft) 97,87 %
14.04.2021 18:32 10,5 C 16,1 C 7,8 C 53 % 1029,4 hPa 0,0 l/m 2 min 0 min 184 W/m 6,4 km/h (2 Bft) 95,74 %
14.04.2021 18:30 10,5 C 17,2 C 8,4 C 54 % 1029,4 hPa 0,0 l/m 2 min 0 min 299 W/m 9,7 km/h (2 Bft) 97,83 %
14.04.2021 18:28 10,5 C 17,2 C 8,4 C 54 % 1029,4 hPa 0,0 l/m 2 min 0 min 314 W/m 6,4 km/h (2 Bft) 97,87 %
14.04.2021 18:26 10,5 C 17,8 C 8,4 C 54 % 1029,4 hPa 0,0 l/m 2 min 0 min 333 W/m 9,7 km/h (2 Bft) 97,87 %
14.04.2021 18:24 10,5 C 17,2 C 8,4 C 53 % 1029,4 hPa 0,0 l/m 2 min 0 min 354 W/m 16,1 km/h (3 Bft) 100,00 %
14.04.2021 18:22 10,5 C 17,2 C 8,4 C 53 % 1029,4 hPa 0,0 l/m 2 min 0 min 371 W/m 16,1 km/h (3 Bft) 93,62 %
14.04.2021 18:20 10,4 C 16,7 C 7,8 C 55 % 1029,5 hPa 0,0 l/m 2 min 0 min 377 W/m 6,4 km/h (2 Bft) 100,00 %
14.04.2021 18:18 10,3 C 16,1 C 7,8 C 54 % 1029,4 hPa 0,0 l/m 2 min 0 min 378 W/m 9,7 km/h (2 Bft) 100,00 %
14.04.2021 18:16 10,2 C 15,6 C 7,8 C 54 % 1029,5 hPa 0,0 l/m 2 min 0 min 386 W/m 12,9 km/h (3 Bft) 100,00 %
14.04.2021 18:14 10,2 C 15,0 C 7,3 C 53 % 1029,5 hPa 0,0 l/m 2 min 0 min 375 W/m 12,9 km/h (3 Bft) 100,00 %
14.04.2021 18:12 10,1 C 14,4 C 7,3 C 53 % 1029,5 hPa 0,0 l/m 2 min 0 min 348 W/m 6,4 km/h (2 Bft) 100,00 %
14.04.2021 18:10 10,1 C 15,0 C 7,3 C 54 % 1029,5 hPa 0,0 l/m 2 min 0 min 370 W/m 9,7 km/h (2 Bft) 100,00 %
14.04.2021 18:08 10,2 C 13,9 C 7,3 C 52 % 1029,5 hPa 0,0 l/m 4 min 0 min 341 W/m 12,9 km/h (3 Bft) 98,85 %
14.04.2021 18:04 10,4 C 12,8 C 7,3 C 53 % 1029,5 hPa 0,0 l/m 2 min 0 min 210 W/m 12,9 km/h (3 Bft) 100,00 %
14.04.2021 18:02 10,5 C 13,3 C 7,8 C 54 % 1029,5 hPa 0,0 l/m 2 min 0 min 214 W/m 12,9 km/h (3 Bft) 100,00 %
14.04.2021 18:00 10,5 C 15,0 C 7,8 C 53 % 1029,6 hPa 0,0 l/m 2 min 0 min 350 W/m 16,1 km/h (3 Bft) 100,00 %
14.04.2021 17:58 10,5 C 16,1 C 7,8 C 55 % 1029,5 hPa 0,0 l/m 2 min 0 min 400 W/m 19,3 km/h (3 Bft) 100,00 %
14.04.2021 17:56 10,5 C 16,1 C 7,8 C 55 % 1029,6 hPa 0,0 l/m 2 min 0 min 410 W/m 16,1 km/h (3 Bft) 97,87 %
14.04.2021 17:54 10,5 C 16,7 C 7,8 C 55 % 1029,5 hPa 0,0 l/m 2 min 0 min 421 W/m 9,7 km/h (2 Bft) 100,00 %
14.04.2021 17:52 10,4 C 16,1 C 7,8 C 55 % 1029,6 hPa 0,0 l/m 2 min 0 min 412 W/m 22,5 km/h (4 Bft) 100,00 %
14.04.2021 17:50 10,5 C 15,6 C 7,8 C 54 % 1029,6 hPa 0,0 l/m 2 min 0 min 413 W/m 12,9 km/h (3 Bft) 100,00 %
14.04.2021 17:48 10,5 C 15,6 C 7,8 C 53 % 1029,5 hPa 0,0 l/m 2 min 0 min 401 W/m 12,9 km/h (3 Bft) 100,00 %
14.04.2021 17:46 10,5 C 16,1 C 7,8 C 53 % 1029,6 hPa 0,0 l/m 2 min 0 min 440 W/m 12,9 km/h (3 Bft) 100,00 %
14.04.2021 17:44 10,6 C 16,1 C 7,8 C 53 % 1029,6 hPa 0,0 l/m 2 min 0 min 468 W/m 19,3 km/h (3 Bft) 97,87 %
14.04.2021 17:42 10,6 C 16,7 C 7,8 C 53 % 1029,6 hPa 0,0 l/m 2 min 0 min 468 W/m 16,1 km/h (3 Bft) 100,00 %
14.04.2021 17:40 10,6 C 16,1 C 8,4 C 52 % 1029,6 hPa 0,0 l/m 2 min 0 min 462 W/m 19,3 km/h (3 Bft) 100,00 %
14.04.2021 17:38 10,6 C 17,2 C 8,4 C 52 % 1029,6 hPa 0,0 l/m 2 min 0 min 471 W/m 12,9 km/h (3 Bft) 100,00 %
14.04.2021 17:36 10,6 C 16,7 C 8,4 C 53 % 1029,6 hPa 0,0 l/m 2 min 0 min 490 W/m 16,1 km/h (3 Bft) 100,00 %
14.04.2021 17:34 10,5 C 16,7 C 8,4 C 53 % 1029,6 hPa 0,0 l/m 2 min 0 min 501 W/m 19,3 km/h (3 Bft) 97,87 %
14.04.2021 17:32 10,5 C 15,6 C 7,8 C 51 % 1029,6 hPa 0,0 l/m 2 min 0 min 503 W/m 12,9 km/h (3 Bft) 100,00 %
14.04.2021 17:30 10,5 C 15,6 C 8,4 C 52 % 1029,7 hPa 0,0 l/m 2 min 0 min 458 W/m 9,7 km/h (2 Bft) 100,00 %
14.04.2021 17:28 10,5 C 15,6 C 8,4 C 51 % 1029,6 hPa 0,0 l/m 2 min 0 min 513 W/m 22,5 km/h (4 Bft) 100,00 %
14.04.2021 17:26 10,6 C 16,1 C 8,4 C 51 % 1029,6 hPa 0,0 l/m 2 min 0 min 553 W/m 19,3 km/h (3 Bft) 97,87 %
14.04.2021 17:24 10,7 C 15,6 C 8,4 C 52 % 1029,7 hPa 0,0 l/m 2 min 0 min 525 W/m 16,1 km/h (3 Bft) 97,87 %
14.04.2021 17:22 10,8 C 15,0 C 7,8 C 53 % 1029,7 hPa 0,0 l/m 2 min 0 min 363 W/m 25,7 km/h (4 Bft) 95,74 %
14.04.2021 17:20 10,8 C 15,6 C 8,4 C 55 % 1029,7 hPa 0,0 l/m 2 min 0 min 283 W/m 16,1 km/h (3 Bft) 97,87 %
14.04.2021 17:18 10,8 C 16,7 C 8,4 C 56 % 1029,7 hPa 0,0 l/m 2 min 0 min 539 W/m 9,7 km/h (2 Bft) 97,83 %
14.04.2021 17:16 10,7 C 17,8 C 8,4 C 57 % 1029,7 hPa 0,0 l/m 2 min 0 min 603 W/m 9,7 km/h (2 Bft) 97,87 %
14.04.2021 17:14 10,5 C 17,2 C 8,4 C 58 % 1029,7 hPa 0,0 l/m 2 min 0 min 609 W/m 19,3 km/h (3 Bft) 97,87 %
14.04.2021 17:12 10,4 C 17,2 C 8,4 C 59 % 1029,8 hPa 0,0 l/m 2 min 0 min 605 W/m 19,3 km/h (3 Bft) 97,87 %
14.04.2021 17:10 10,3 C 17,2 C 7,8 C 59 % 1029,7 hPa 0,0 l/m 2 min 0 min 591 W/m 12,9 km/h (3 Bft) 95,74 %
14.04.2021 17:08 10,2 C 17,2 C 7,8 C 60 % 1029,8 hPa 0,0 l/m 2 min 0 min 584 W/m 6,4 km/h (2 Bft) 97,87 %
14.04.2021 17:06 10,1 C 16,7 C 7,8 C 59 % 1029,8 hPa 0,0 l/m 2 min 0 min 563 W/m 16,1 km/h (3 Bft) 97,83 %
14.04.2021 17:04 10,1 C 16,7 C 7,8 C 59 % 1029,8 hPa 0,0 l/m 2 min 0 min 537 W/m 16,1 km/h (3 Bft) 97,87 %
14.04.2021 17:02 10,0 C 16,1 C 7,8 C 58 % 1029,8 hPa 0,0 l/m 2 min 0 min 468 W/m 12,9 km/h (3 Bft) 95,74 %
14.04.2021 17:00 10,0 C 16,7 C 7,8 C 59 % 1029,9 hPa 0,0 l/m 2 min 0 min 501 W/m 16,1 km/h (3 Bft) 95,74 %
14.04.2021 16:58 9,9 C 16,1 C 7,8 C 59 % 1029,8 hPa 0,0 l/m 2 min 0 min 587 W/m 9,7 km/h (2 Bft) 95,74 %
14.04.2021 16:56 9,9 C 15,6 C 7,8 C 61 % 1029,9 hPa 0,0 l/m 2 min 0 min 595 W/m 16,1 km/h (3 Bft) 95,74 %
14.04.2021 16:54 9,8 C 16,1 C 7,3 C 61 % 1029,8 hPa 0,0 l/m 2 min 0 min 630 W/m 16,1 km/h (3 Bft) 95,65 %
14.04.2021 16:52 9,6 C 15,0 C 7,3 C 61 % 1029,9 hPa 0,0 l/m 2 min 0 min 651 W/m 9,7 km/h (2 Bft) 91,49 %
14.04.2021 16:50 9,6 C 14,4 C 7,3 C 63 % 1029,9 hPa 0,0 l/m 2 min 0 min 658 W/m 16,1 km/h (3 Bft) 93,62 %
14.04.2021 16:48 9,6 C 12,8 C 6,7 C 63 % 1029,9 hPa 0,0 l/m 2 min 0 min 289 W/m 9,7 km/h (2 Bft) 95,74 %
14.04.2021 16:46 9,8 C 10,0 C 6,1 C 61 % 1030,0 hPa 0,0 l/m 0 min 0 min 243 W/m 16,1 km/h (3 Bft) 93,62 %
14.04.2021 16:44 9,9 C 9,4 C 6,1 C 61 % 1030,0 hPa 0,0 l/m 0 min 0 min 167 W/m 16,1 km/h (3 Bft) 95,74 %
14.04.2021 16:42 10,0 C 9,4 C 6,1 C 60 % 1030,0 hPa 0,0 l/m 0 min 0 min 142 W/m 19,3 km/h (3 Bft) 93,48 %
14.04.2021 16:40 10,4 C 10,0 C 6,7 C 60 % 1030,0 hPa 0,0 l/m 0 min 0 min 127 W/m 16,1 km/h (3 Bft) 93,62 %
14.04.2021 16:38 10,6 C 10,6 C 6,7 C 58 % 1030,0 hPa 0,0 l/m 0 min 0 min 116 W/m 16,1 km/h (3 Bft) 91,49 %
14.04.2021 16:36 10,8 C 11,7 C 7,3 C 56 % 1030,0 hPa 0,0 l/m 0 min 0 min 119 W/m 22,5 km/h (4 Bft) 91,49 %
14.04.2021 16:34 11,1 C 12,8 C 7,8 C 53 % 1030,0 hPa 0,0 l/m 0 min 0 min 129 W/m 16,1 km/h (3 Bft) 93,62 %
14.04.2021 16:32 11,2 C 15,0 C 8,4 C 52 % 1030,0 hPa 0,0 l/m 2 min 0 min 398 W/m 35,4 km/h (5 Bft) 95,74 %
14.04.2021 16:30 11,3 C 18,3 C 8,9 C 54 % 1030,0 hPa 0,0 l/m 2 min 0 min 687 W/m 16,1 km/h (3 Bft) 95,65 %
14.04.2021 16:28 11,2 C 19,4 C 8,9 C 56 % 1029,9 hPa 0,0 l/m 2 min 0 min 728 W/m 12,9 km/h (3 Bft) 95,74 %
14.04.2021 16:26 11,0 C 18,9 C 8,9 C 57 % 1030,0 hPa 0,0 l/m 2 min 0 min 756 W/m 6,4 km/h (2 Bft) 95,74 %
14.04.2021 16:24 10,9 C 19,4 C 8,9 C 58 % 1030,0 hPa 0,0 l/m 2 min 0 min 767 W/m 19,3 km/h (3 Bft) 95,74 %
14.04.2021 16:22 10,7 C 18,9 C 8,4 C 58 % 1030,0 hPa 0,0 l/m 2 min 0 min 797 W/m 19,3 km/h (3 Bft) 95,74 %
14.04.2021 16:20 10,5 C 18,9 C 7,8 C 58 % 1030,0 hPa 0,0 l/m 5 min 0 min 774 W/m 16,1 km/h (3 Bft) 94,12 %
14.04.2021 16:15 10,4 C 17,2 C 7,3 C 57 % 1030,1 hPa 0,0 l/m 5 min 0 min 715 W/m 16,1 km/h (3 Bft) 98,25 %
14.04.2021 16:10 10,1 C 17,8 C 7,3 C 58 % 1030,1 hPa 0,0 l/m 5 min 0 min 683 W/m 19,3 km/h (3 Bft) 99,12 %
14.04.2021 16:05 10,1 C 16,7 C 6,7 C 57 % 1030,2 hPa 0,0 l/m 3 min 0 min 689 W/m 9,7 km/h (2 Bft) 100,00 %
14.04.2021 16:02 10,0 C 16,7 C 6,7 C 58 % 1030,2 hPa 0,0 l/m 2 min 0 min 694 W/m 6,4 km/h (2 Bft) 97,87 %
14.04.2021 16:00 10,0 C 16,7 C 6,7 C 57 % 1030,2 hPa 0,0 l/m 2 min 0 min 702 W/m 12,9 km/h (3 Bft) 95,74 %
14.04.2021 15:58 10,0 C 17,2 C 6,7 C 59 % 1030,3 hPa 0,0 l/m 2 min 0 min 698 W/m 6,4 km/h (2 Bft) 97,87 %
14.04.2021 15:56 9,9 C 16,7 C 7,3 C 59 % 1030,3 hPa 0,0 l/m 2 min 0 min 691 W/m 19,3 km/h (3 Bft) 97,83 %
14.04.2021 15:54 9,8 C 17,2 C 6,7 C 60 % 1030,3 hPa 0,0 l/m 2 min 0 min 696 W/m 12,9 km/h (3 Bft) 95,74 %
14.04.2021 15:52 9,6 C 16,7 C 6,7 C 59 % 1030,3 hPa 0,0 l/m 2 min 0 min 703 W/m 12,9 km/h (3 Bft) 100,00 %
14.04.2021 15:50 9,5 C 16,1 C 6,7 C 59 % 1030,3 hPa 0,0 l/m 2 min 0 min 709 W/m 9,7 km/h (2 Bft) 100,00 %
14.04.2021 15:48 9,5 C 15,6 C 6,7 C 60 % 1030,3 hPa 0,0 l/m 2 min 0 min 707 W/m 19,3 km/h (3 Bft) 97,87 %
14.04.2021 15:46 9,5 C 15,0 C 6,7 C 60 % 1030,4 hPa 0,0 l/m 2 min 0 min 719 W/m 19,3 km/h (3 Bft) 100,00 %
14.04.2021 15:44 9,4 C 15,6 C 6,7 C 61 % 1030,4 hPa 0,0 l/m 2 min 0 min 722 W/m 12,9 km/h (3 Bft) 100,00 %
14.04.2021 15:42 9,3 C 15,0 C 6,7 C 61 % 1030,4 hPa 0,0 l/m 2 min 0 min 715 W/m 16,1 km/h (3 Bft) 95,74 %
14.04.2021 15:40 9,2 C 15,0 C 6,7 C 61 % 1030,4 hPa 0,0 l/m 2 min 0 min 708 W/m 9,7 km/h (2 Bft) 97,87 %
14.04.2021 15:38 9,0 C 15,6 C 6,7 C 62 % 1030,5 hPa 0,0 l/m 2 min 0 min 708 W/m 6,4 km/h (2 Bft) 98,11 %
14.04.2021 15:36 8,9 C 15,0 C 6,7 C 62 % 1030,5 hPa 0,0 l/m 2 min 0 min 711 W/m 12,9 km/h (3 Bft) 100,00 %
14.04.2021 15:34 8,7 C 15,0 C 6,7 C 62 % 1030,6 hPa 0,0 l/m 2 min 0 min 710 W/m 12,9 km/h (3 Bft) 100,00 %
14.04.2021 15:32 8,6 C 14,4 C 6,7 C 62 % 1030,6 hPa 0,0 l/m 2 min 0 min 708 W/m 12,9 km/h (3 Bft) 100,00 %
14.04.2021 15:30 8,5 C 14,4 C 6,1 C 61 % 1030,6 hPa 0,0 l/m 2 min 0 min 702 W/m 12,9 km/h (3 Bft) 100,00 %
14.04.2021 15:28 8,5 C 13,3 C 6,7 C 62 % 1030,7 hPa 0,0 l/m 2 min 0 min 649 W/m 6,4 km/h (2 Bft) 97,83 %
14.04.2021 15:26 8,4 C 12,8 C 6,7 C 62 % 1030,7 hPa 0,0 l/m 2 min 0 min 645 W/m 12,9 km/h (3 Bft) 97,87 %
14.04.2021 15:24 8,3 C 12,2 C 6,7 C 64 % 1030,7 hPa 0,0 l/m 2 min 0 min 545 W/m 12,9 km/h (3 Bft) 100,00 %
14.04.2021 15:22 8,2 C 12,2 C 6,7 C 65 % 1030,8 hPa 0,0 l/m 2 min 0 min 414 W/m 9,7 km/h (2 Bft) 97,87 %
14.04.2021 15:20 8,1 C 12,8 C 6,7 C 66 % 1030,8 hPa 0,0 l/m 2 min 0 min 404 W/m 9,7 km/h (2 Bft) 100,00 %
14.04.2021 15:18 8,0 C 12,8 C 6,7 C 66 % 1030,8 hPa 0,0 l/m 2 min 0 min 476 W/m 12,9 km/h (3 Bft) 100,00 %
14.04.2021 15:16 7,9 C 12,2 C 6,7 C 68 % 1030,8 hPa 0,0 l/m 2 min 0 min 586 W/m 9,7 km/h (2 Bft) 100,00 %
14.04.2021 15:14 7,8 C 11,7 C 6,7 C 67 % 1030,9 hPa 0,0 l/m 2 min 0 min 468 W/m 12,9 km/h (3 Bft) 100,00 %
14.04.2021 15:12 7,7 C 11,7 C 6,7 C 69 % 1030,8 hPa 0,0 l/m 2 min 0 min 460 W/m 19,3 km/h (3 Bft) 100,00 %
14.04.2021 15:10 7,6 C 12,2 C 6,7 C 70 % 1030,9 hPa 0,0 l/m 2 min 0 min 498 W/m 6,4 km/h (2 Bft) 100,00 %
14.04.2021 15:08 7,5 C 11,7 C 6,7 C 70 % 1030,9 hPa 0,0 l/m 2 min 0 min 567 W/m 12,9 km/h (3 Bft) 100,00 %
14.04.2021 15:06 7,3 C 11,1 C 6,7 C 71 % 1030,9 hPa 0,0 l/m 2 min 0 min 469 W/m 16,1 km/h (3 Bft) 100,00 %
14.04.2021 15:04 7,1 C 10,6 C 6,7 C 71 % 1031,0 hPa 0,0 l/m 2 min 0 min 457 W/m 6,4 km/h (2 Bft) 100,00 %
14.04.2021 15:02 7,0 C 11,1 C 6,1 C 72 % 1031,0 hPa 0,0 l/m 2 min 0 min 529 W/m 16,1 km/h (3 Bft) 100,00 %
14.04.2021 15:00 6,9 C 10,6 C 6,1 C 73 % 1031,0 hPa 0,0 l/m 2 min 0 min 503 W/m 9,7 km/h (2 Bft) 100,00 %
14.04.2021 14:58 6,8 C 10,0 C 5,6 C 73 % 1031,0 hPa 0,0 l/m 2 min 0 min 463 W/m 9,7 km/h (2 Bft) 100,00 %
14.04.2021 14:56 6,8 C 9,4 C 5,6 C 73 % 1031,1 hPa 0,0 l/m 2 min 0 min 418 W/m 16,1 km/h (3 Bft) 100,00 %
14.04.2021 14:54 6,7 C 8,9 C 5,6 C 74 % 1031,1 hPa 0,0 l/m 2 min 0 min 401 W/m 12,9 km/h (3 Bft) 100,00 %
14.04.2021 14:52 6,6 C 8,9 C 5,0 C 74 % 1031,1 hPa 0,0 l/m 2 min 0 min 380 W/m 9,7 km/h (2 Bft) 100,00 %
14.04.2021 14:50 6,5 C 8,3 C 5,0 C 74 % 1031,1 hPa 0,0 l/m 2 min 0 min 353 W/m 12,9 km/h (3 Bft) 97,87 %
14.04.2021 14:48 6,5 C 8,3 C 5,0 C 74 % 1031,2 hPa 0,0 l/m 0 min 0 min 336 W/m 12,9 km/h (3 Bft) 100,00 %
14.04.2021 14:46 6,4 C 8,3 C 5,0 C 75 % 1031,1 hPa 0,0 l/m 0 min 0 min 322 W/m 12,9 km/h (3 Bft) 100,00 %
14.04.2021 14:44 6,4 C 7,8 C 4,5 C 75 % 1031,1 hPa 0,0 l/m 0 min 0 min 307 W/m 3,2 km/h (1 Bft) 100,00 %
14.04.2021 14:42 6,3 C 7,8 C 4,5 C 75 % 1031,2 hPa 0,0 l/m 0 min 0 min 293 W/m 6,4 km/h (2 Bft) 100,00 %
14.04.2021 14:40 6,3 C 7,2 C 4,5 C 75 % 1031,2 hPa 0,0 l/m 0 min 0 min 275 W/m 12,9 km/h (3 Bft) 100,00 %
14.04.2021 14:38 6,1 C 7,2 C 4,5 C 75 % 1031,2 hPa 0,0 l/m 0 min 0 min 258 W/m 12,9 km/h (3 Bft) 97,87 %
14.04.2021 14:36 6,1 C 7,2 C 4,5 C 75 % 1031,2 hPa 0,0 l/m 0 min 0 min 239 W/m 12,9 km/h (3 Bft) 97,87 %
14.04.2021 14:34 6,0 C 7,2 C 4,5 C 76 % 1031,2 hPa 0,0 l/m 0 min 0 min 214 W/m 12,9 km/h (3 Bft) 97,87 %
14.04.2021 14:32 6,0 C 7,2 C 3,9 C 77 % 1031,3 hPa 0,0 l/m 0 min 0 min 189 W/m 16,1 km/h (3 Bft) 100,00 %
14.04.2021 14:30 6,0 C 6,7 C 3,9 C 78 % 1031,3 hPa 0,0 l/m 0 min 0 min 171 W/m 16,1 km/h (3 Bft) 100,00 %
14.04.2021 14:28 6,0 C 6,7 C 3,9 C 78 % 1031,3 hPa 0,0 l/m 0 min 0 min 163 W/m 16,1 km/h (3 Bft) 100,00 %
14.04.2021 14:26 5,9 C 6,7 C 3,9 C 79 % 1031,3 hPa 0,0 l/m 0 min 0 min 177 W/m 19,3 km/h (3 Bft) 97,96 %
14.04.2021 14:24 5,9 C 6,7 C 3,9 C 79 % 1031,3 hPa 0,0 l/m 0 min 0 min 195 W/m 22,5 km/h (4 Bft) 97,87 %
14.04.2021 14:22 5,9 C 6,7 C 3,9 C 79 % 1031,3 hPa 0,0 l/m 0 min 2 min 206 W/m 25,7 km/h (4 Bft) 95,65 %
14.04.2021 14:20 5,9 C 6,7 C 3,9 C 80 % 1031,4 hPa 0,0 l/m 0 min 2 min 218 W/m 19,3 km/h (3 Bft) 97,87 %
14.04.2021 14:18 5,8 C 6,7 C 3,9 C 81 % 1031,3 hPa 0,0 l/m 0 min 0 min 224 W/m 35,4 km/h (5 Bft) 97,87 %
14.04.2021 14:16 5,8 C 6,7 C 3,9 C 81 % 1031,3 hPa 0,0 l/m 0 min 0 min 225 W/m 29,0 km/h (5 Bft) 95,74 %
14.04.2021 14:14 5,8 C 6,7 C 3,9 C 81 % 1031,3 hPa 0,0 l/m 0 min 0 min 222 W/m 35,4 km/h (5 Bft) 97,96 %
14.04.2021 14:12 5,8 C 6,7 C 3,9 C 81 % 1031,3 hPa 0,0 l/m 0 min 0 min 219 W/m 19,3 km/h (3 Bft) 97,87 %
14.04.2021 14:10 5,9 C 6,1 C 3,4 C 81 % 1031,3 hPa 0,0 l/m 0 min 0 min 212 W/m 32,2 km/h (5 Bft) 97,83 %
14.04.2021 14:08 5,9 C 6,1 C 3,4 C 81 % 1031,3 hPa 0,0 l/m 0 min 0 min 204 W/m 32,2 km/h (5 Bft) 97,67 %
14.04.2021 14:06 5,9 C 6,1 C 3,4 C 81 % 1031,3 hPa 0,0 l/m 0 min 0 min 194 W/m 25,7 km/h (4 Bft) 93,62 %
14.04.2021 14:04 6,0 C 6,1 C 3,4 C 80 % 1031,4 hPa 0,0 l/m 0 min 0 min 191 W/m 25,7 km/h (4 Bft) 97,83 %
14.04.2021 14:02 6,1 C 6,1 C 3,4 C 80 % 1031,4 hPa 0,0 l/m 0 min 0 min 192 W/m 25,7 km/h (4 Bft) 95,74 %
14.04.2021 14:00 6,4 C 6,7 C 3,9 C 79 % 1031,4 hPa 0,0 l/m 0 min 0 min 197 W/m 35,4 km/h (5 Bft) 97,87 %
14.04.2021 13:58 6,5 C 6,7 C 3,9 C 79 % 1031,4 hPa 0,0 l/m 0 min 0 min 206 W/m 32,2 km/h (5 Bft) 95,74 %
14.04.2021 13:56 6,7 C 7,2 C 3,9 C 79 % 1031,4 hPa 0,0 l/m 0 min 0 min 220 W/m 22,5 km/h (4 Bft) 95,74 %
14.04.2021 13:54 6,8 C 7,2 C 4,5 C 79 % 1031,4 hPa 0,0 l/m 0 min 0 min 240 W/m 32,2 km/h (5 Bft) 97,87 %
14.04.2021 13:52 6,9 C 7,2 C 4,5 C 77 % 1031,4 hPa 0,0 l/m 0 min 0 min 264 W/m 25,7 km/h (4 Bft) 97,83 %
14.04.2021 13:50 7,0 C 7,2 C 4,5 C 76 % 1031,4 hPa 0,0 l/m 0 min 0 min 280 W/m 41,8 km/h (6 Bft) 95,74 %
14.04.2021 13:48 7,2 C 7,2 C 4,5 C 75 % 1031,4 hPa 0,0 l/m 0 min 0 min 292 W/m 29,0 km/h (5 Bft) 95,83 %
14.04.2021 13:47 7,3 C 7,2 C 4,5 C 74 % 1031,4 hPa 0,0 l/m 0 min 0 min 286 W/m 32,2 km/h (5 Bft) 97,50 %
14.04.2021 13:44 7,4 C 7,2 C 4,5 C 70 % 1031,4 hPa 0,0 l/m 0 min 0 min 250 W/m 29,0 km/h (5 Bft) 95,65 %
14.04.2021 13:42 7,6 C 7,2 C 4,5 C 69 % 1031,3 hPa 0,0 l/m 0 min 0 min 206 W/m 16,1 km/h (3 Bft) 97,87 %
14.04.2021 13:40 7,8 C 7,2 C 4,5 C 68 % 1031,2 hPa 0,0 l/m 0 min 0 min 170 W/m 16,1 km/h (3 Bft) 97,87 %
14.04.2021 13:38 8,0 C 7,2 C 4,5 C 69 % 1031,3 hPa 0,0 l/m 0 min 0 min 146 W/m 25,7 km/h (4 Bft) 97,87 %
14.04.2021 13:36 8,3 C 7,2 C 5,0 C 69 % 1031,3 hPa 0,0 l/m 0 min 2 min 130 W/m 25,7 km/h (4 Bft) 95,74 %
14.04.2021 13:34 8,5 C 7,8 C 5,0 C 68 % 1031,3 hPa 0,0 l/m 0 min 2 min 121 W/m 25,7 km/h (4 Bft) 91,49 %
14.04.2021 13:32 8,9 C 7,8 C 5,6 C 65 % 1031,3 hPa 0,0 l/m 0 min 2 min 121 W/m 29,0 km/h (5 Bft) 97,14 %
14.04.2021 13:30 9,3 C 8,9 C 6,1 C 63 % 1031,2 hPa 0,0 l/m 0 min 2 min 132 W/m 29,0 km/h (5 Bft) 95,74 %
14.04.2021 13:28 9,6 C 10,0 C 6,7 C 61 % 1031,2 hPa 0,0 l/m 0 min 0 min 141 W/m 32,2 km/h (5 Bft) 93,10 %
14.04.2021 13:26 9,8 C 11,1 C 7,8 C 58 % 1031,2 hPa 0,0 l/m 0 min 0 min 161 W/m 19,3 km/h (3 Bft) 95,74 %
14.04.2021 13:24 9,9 C 12,2 C 8,4 C 57 % 1031,2 hPa 0,0 l/m 0 min 0 min 197 W/m 16,1 km/h (3 Bft) 95,74 %
14.04.2021 13:22 10,0 C 13,9 C 8,9 C 57 % 1031,1 hPa 0,0 l/m 0 min 0 min 278 W/m 19,3 km/h (3 Bft) 95,74 %
14.04.2021 13:20 10,0 C 15,0 C 9,5 C 58 % 1031,1 hPa 0,0 l/m 2 min 0 min 411 W/m 6,4 km/h (2 Bft) 97,83 %
14.04.2021 13:18 10,0 C 15,6 C 10,0 C 58 % 1031,1 hPa 0,0 l/m 2 min 0 min 602 W/m 9,7 km/h (2 Bft) 97,87 %
14.04.2021 13:16 10,0 C 16,1 C 10,6 C 59 % 1031,1 hPa 0,0 l/m 2 min 0 min 757 W/m 12,9 km/h (3 Bft) 97,87 %
14.04.2021 13:14 10,0 C 16,7 C 10,0 C 57 % 1031,1 hPa 0,0 l/m 2 min 0 min 839 W/m 12,9 km/h (3 Bft) 97,87 %
14.04.2021 13:12 10,0 C 17,8 C 10,0 C 57 % 1031,1 hPa 0,0 l/m 2 min 0 min 922 W/m 9,7 km/h (2 Bft) 95,74 %
14.04.2021 13:10 9,9 C 18,3 C 9,5 C 59 % 1031,1 hPa 0,0 l/m 2 min 0 min 996 W/m 12,9 km/h (3 Bft) 97,14 %
14.04.2021 13:08 9,8 C 17,8 C 9,5 C 60 % 1031,1 hPa 0,0 l/m 2 min 0 min 752 W/m 12,9 km/h (3 Bft) 95,74 %
14.04.2021 13:06 9,6 C 17,8 C 10,0 C 59 % 1031,2 hPa 0,0 l/m 2 min 0 min 1030 W/m 9,7 km/h (2 Bft) 98,28 %
14.04.2021 13:04 9,5 C 16,7 C 10,6 C 59 % 1031,2 hPa 0,0 l/m 2 min 0 min 993 W/m 9,7 km/h (2 Bft) 97,87 %
14.04.2021 13:02 9,4 C 16,7 C 12,3 C 60 % 1031,2 hPa 0,0 l/m 2 min 0 min 979 W/m 9,7 km/h (2 Bft) 97,87 %
14.04.2021 13:00 9,3 C 15,6 C 12,8 C 59 % 1031,3 hPa 0,0 l/m 2 min 0 min 979 W/m 16,1 km/h (3 Bft) 97,87 %
14.04.2021 12:58 9,1 C 15,0 C 13,4 C 60 % 1031,3 hPa 0,0 l/m 2 min 0 min 932 W/m 9,7 km/h (2 Bft) 97,87 %
14.04.2021 12:56 8,9 C 14,4 C 12,8 C 60 % 1031,3 hPa 0,0 l/m 2 min 0 min 795 W/m 12,9 km/h (3 Bft) 97,83 %
14.04.2021 12:54 8,9 C 13,9 C 13,4 C 60 % 1031,3 hPa 0,0 l/m 2 min 0 min 749 W/m 9,7 km/h (2 Bft) 97,87 %
14.04.2021 12:52 8,8 C 13,3 C 12,3 C 60 % 1031,4 hPa 0,0 l/m 2 min 0 min 643 W/m 16,1 km/h (3 Bft) 97,87 %
14.04.2021 12:50 8,7 C 13,9 C 12,8 C 61 % 1031,4 hPa 0,0 l/m 2 min 0 min 732 W/m 12,9 km/h (3 Bft) 97,14 %
14.04.2021 12:48 8,5 C 13,9 C 12,8 C 63 % 1031,4 hPa 0,0 l/m 2 min 0 min 810 W/m 12,9 km/h (3 Bft) 98,31 %
14.04.2021 12:46 8,4 C 12,8 C 12,8 C 62 % 1031,4 hPa 0,0 l/m 2 min 0 min 659 W/m 12,9 km/h (3 Bft) 97,87 %
14.04.2021 12:44 8,3 C 12,8 C 11,7 C 63 % 1031,4 hPa 0,0 l/m 2 min 0 min 658 W/m 12,9 km/h (3 Bft) 95,65 %
14.04.2021 12:42 8,2 C 12,2 C 10,0 C 63 % 1031,5 hPa 0,0 l/m 2 min 0 min 630 W/m 9,7 km/h (2 Bft) 100,00 %
14.04.2021 12:40 8,1 C 11,1 C 8,4 C 63 % 1031,5 hPa 0,0 l/m 2 min 0 min 408 W/m 9,7 km/h (2 Bft) 97,83 %
14.04.2021 12:38 8,1 C 10,6 C 7,8 C 62 % 1031,5 hPa 0,0 l/m 0 min 0 min 351 W/m 12,9 km/h (3 Bft) 97,87 %
14.04.2021 12:36 8,1 C 10,0 C 8,4 C 62 % 1031,6 hPa 0,0 l/m 2 min 0 min 400 W/m 9,7 km/h (2 Bft) 95,74 %
14.04.2021 12:34 8,1 C 9,4 C 7,8 C 61 % 1031,5 hPa 0,0 l/m 0 min 0 min 331 W/m 6,4 km/h (2 Bft) 97,87 %
14.04.2021 12:32 8,2 C 9,4 C 7,3 C 61 % 1031,6 hPa 0,0 l/m 0 min 0 min 291 W/m 12,9 km/h (3 Bft) 95,74 %
14.04.2021 12:30 8,3 C 9,4 C 7,3 C 61 % 1031,6 hPa 0,0 l/m 0 min 0 min 278 W/m 9,7 km/h (2 Bft) 97,83 %
14.04.2021 12:28 8,3 C 9,4 C 6,7 C 61 % 1031,6 hPa 0,0 l/m 0 min 0 min 277 W/m 12,9 km/h (3 Bft) 100,00 %
14.04.2021 12:26 8,3 C 9,4 C 7,3 C 61 % 1031,7 hPa 0,0 l/m 0 min 0 min 265 W/m 3,2 km/h (1 Bft) 97,92 %
14.04.2021 12:24 8,4 C 9,4 C 6,7 C 61 % 1031,6 hPa 0,0 l/m 0 min 0 min 227 W/m 9,7 km/h (2 Bft) 100,00 %
14.04.2021 12:22 8,4 C 10,0 C 7,3 C 60 % 1031,7 hPa 0,0 l/m 0 min 0 min 258 W/m 12,9 km/h (3 Bft) 100,00 %
14.04.2021 12:20 8,5 C 10,6 C 7,8 C 61 % 1031,7 hPa 0,0 l/m 0 min 0 min 248 W/m 9,7 km/h (2 Bft) 100,00 %
14.04.2021 12:18 8,6 C 10,6 C 7,8 C 60 % 1031,7 hPa 0,0 l/m 0 min 0 min 206 W/m 6,4 km/h (2 Bft) 100,00 %
14.04.2021 12:16 8,7 C 11,7 C 8,4 C 61 % 1031,7 hPa 0,0 l/m 0 min 0 min 195 W/m 16,1 km/h (3 Bft) 100,00 %
14.04.2021 12:14 8,7 C 12,8 C 9,5 C 62 % 1031,8 hPa 0,0 l/m 0 min 0 min 197 W/m 12,9 km/h (3 Bft) 100,00 %
14.04.2021 12:12 8,7 C 13,9 C 11,1 C 63 % 1031,7 hPa 0,0 l/m 2 min 0 min 365 W/m 12,9 km/h (3 Bft) 100,00 %
14.04.2021 12:10 8,6 C 14,4 C 13,9 C 62 % 1031,7 hPa 0,0 l/m 2 min 0 min 860 W/m 19,3 km/h (3 Bft) 100,00 %
14.04.2021 12:08 8,5 C 14,4 C 16,7 C 62 % 1031,8 hPa 0,0 l/m 4 min 0 min 860 W/m 6,4 km/h (2 Bft) 100,00 %
14.04.2021 12:04 8,1 C 13,9 C 13,4 C 64 % 1031,8 hPa 0,0 l/m 2 min 0 min 801 W/m 12,9 km/h (3 Bft) 100,00 %
14.04.2021 12:02 8,0 C 13,3 C 13,4 C 65 % 1031,8 hPa 0,0 l/m 2 min 0 min 773 W/m 9,7 km/h (2 Bft) 97,96 %
14.04.2021 12:00 7,9 C 12,8 C 13,4 C 65 % 1031,8 hPa 0,0 l/m 2 min 0 min 753 W/m 3,2 km/h (1 Bft) 97,83 %
14.04.2021 11:58 7,7 C 12,2 C 13,4 C 65 % 1031,7 hPa 0,0 l/m 2 min 0 min 710 W/m 6,4 km/h (2 Bft) 100,00 %
14.04.2021 11:56 7,5 C 12,2 C 11,7 C 66 % 1031,8 hPa 0,0 l/m 2 min 0 min 701 W/m 3,2 km/h (1 Bft) 100,00 %
14.04.2021 11:54 7,4 C 11,7 C 10,0 C 66 % 1031,8 hPa 0,0 l/m 2 min 0 min 621 W/m 6,4 km/h (2 Bft) 100,00 %
14.04.2021 11:52 7,4 C 11,1 C 10,0 C 66 % 1031,8 hPa 0,0 l/m 2 min 0 min 552 W/m 9,7 km/h (2 Bft) 100,00 %
14.04.2021 11:50 7,4 C 11,1 C 9,5 C 67 % 1031,8 hPa 0,0 l/m 2 min 0 min 485 W/m 9,7 km/h (2 Bft) 100,00 %
14.04.2021 11:48 7,3 C 11,1 C 9,5 C 67 % 1031,9 hPa 0,0 l/m 2 min 0 min 553 W/m 16,1 km/h (3 Bft) 100,00 %
14.04.2021 11:46 7,1 C 11,1 C 9,5 C 69 % 1031,9 hPa 0,0 l/m 2 min 0 min 585 W/m 9,7 km/h (2 Bft) 100,00 %
14.04.2021 11:44 7,0 C 10,0 C 9,5 C 68 % 1031,9 hPa 0,0 l/m 2 min 0 min 504 W/m 9,7 km/h (2 Bft) 100,00 %
14.04.2021 11:42 6,9 C 9,4 C 8,4 C 69 % 1031,9 hPa 0,0 l/m 2 min 0 min 597 W/m 12,9 km/h (3 Bft) 97,92 %
14.04.2021 11:40 6,9 C 8,9 C 7,3 C 69 % 1031,9 hPa 0,0 l/m 2 min 0 min 645 W/m 12,9 km/h (3 Bft) 100,00 %
14.04.2021 11:38 6,9 C 9,4 C 6,1 C 71 % 1031,9 hPa 0,0 l/m 2 min 0 min 471 W/m 6,4 km/h (2 Bft) 100,00 %
14.04.2021 11:36 6,8 C 8,3 C 5,0 C 72 % 1032,0 hPa 0,0 l/m 0 min 0 min 280 W/m 12,9 km/h (3 Bft) 97,83 %
14.04.2021 11:34 6,8 C 8,3 C 5,0 C 71 % 1032,0 hPa 0,0 l/m 0 min 2 min 227 W/m 9,7 km/h (2 Bft) 100,00 %
14.04.2021 11:32 6,8 C 8,3 C 5,0 C 71 % 1032,0 hPa 0,0 l/m 0 min 2 min 216 W/m 9,7 km/h (2 Bft) 100,00 %
14.04.2021 11:30 6,8 C 8,9 C 5,6 C 71 % 1032,0 hPa 0,0 l/m 0 min 0 min 229 W/m 0,0 km/h (0 Bft) 97,87 %
14.04.2021 11:28 6,8 C 8,9 C 6,1 C 71 % 1032,0 hPa 0,0 l/m 0 min 0 min 270 W/m 6,4 km/h (2 Bft) 97,87 %
14.04.2021 11:26 6,8 C 9,4 C 6,1 C 71 % 1032,0 hPa 0,0 l/m 0 min 0 min 298 W/m 9,7 km/h (2 Bft) 98,11 %
14.04.2021 11:24 6,8 C 9,4 C 6,7 C 72 % 1032,1 hPa 0,0 l/m 0 min 0 min 315 W/m 6,4 km/h (2 Bft) 97,87 %
14.04.2021 11:22 6,6 C 9,4 C 6,7 C 73 % 1032,0 hPa 0,0 l/m 2 min 0 min 361 W/m 6,4 km/h (2 Bft) 97,83 %
14.04.2021 11:20 6,6 C 10,0 C 6,7 C 73 % 1032,0 hPa 0,0 l/m 2 min 0 min 460 W/m 3,2 km/h (1 Bft) 95,74 %
14.04.2021 11:18 6,5 C 9,4 C 6,7 C 74 % 1032,0 hPa 0,0 l/m 2 min 0 min 455 W/m 6,4 km/h (2 Bft) 95,74 %
14.04.2021 11:16 6,4 C 9,4 C 6,7 C 74 % 1032,0 hPa 0,0 l/m 2 min 0 min 512 W/m 3,2 km/h (1 Bft) 95,74 %
14.04.2021 11:14 6,3 C 8,9 C 6,7 C 74 % 1032,0 hPa 0,0 l/m 2 min 0 min 359 W/m 6,4 km/h (2 Bft) 93,62 %
14.04.2021 11:12 6,3 C 9,4 C 6,7 C 76 % 1032,1 hPa 0,0 l/m 2 min 0 min 369 W/m 6,4 km/h (2 Bft) 94,29 %
14.04.2021 11:10 6,1 C 10,6 C 6,7 C 77 % 1032,0 hPa 0,0 l/m 2 min 0 min 597 W/m 6,4 km/h (2 Bft) 95,74 %
14.04.2021 11:08 5,9 C 9,4 C 7,3 C 77 % 1032,1 hPa 0,0 l/m 2 min 0 min 721 W/m 6,4 km/h (2 Bft) 95,74 %
14.04.2021 11:06 5,8 C 8,9 C 6,7 C 77 % 1032,0 hPa 0,0 l/m 2 min 0 min 707 W/m 12,9 km/h (3 Bft) 93,48 %
14.04.2021 11:04 5,7 C 8,9 C 6,1 C 78 % 1032,1 hPa 0,0 l/m 2 min 0 min 628 W/m 9,7 km/h (2 Bft) 93,62 %
14.04.2021 11:02 5,6 C 8,3 C 5,6 C 79 % 1032,1 hPa 0,0 l/m 2 min 0 min 627 W/m 12,9 km/h (3 Bft) 95,74 %
14.04.2021 11:00 5,5 C 8,3 C 5,6 C 81 % 1032,1 hPa 0,0 l/m 2 min 0 min 549 W/m 12,9 km/h (3 Bft) 95,74 %
14.04.2021 10:58 5,4 C 8,3 C 5,6 C 82 % 1032,2 hPa 0,0 l/m 2 min 0 min 446 W/m 12,9 km/h (3 Bft) 95,74 %
14.04.2021 10:56 5,3 C 7,8 C 5,6 C 82 % 1032,1 hPa 0,0 l/m 2 min 0 min 367 W/m 6,4 km/h (2 Bft) 91,49 %
14.04.2021 10:54 5,1 C 7,2 C 5,0 C 82 % 1032,1 hPa 0,0 l/m 2 min 0 min 358 W/m 12,9 km/h (3 Bft) 95,65 %
14.04.2021 10:52 5,0 C 7,2 C 4,5 C 83 % 1032,1 hPa 0,0 l/m 2 min 0 min 340 W/m 9,7 km/h (2 Bft) 95,74 %
14.04.2021 10:50 5,0 C 6,1 C 3,9 C 83 % 1032,1 hPa 0,0 l/m 0 min 0 min 251 W/m 12,9 km/h (3 Bft) 95,74 %
14.04.2021 10:48 4,9 C 6,1 C 3,9 C 84 % 1032,1 hPa 0,0 l/m 0 min 0 min 221 W/m 6,4 km/h (2 Bft) 81,40 %
14.04.2021 10:46 4,8 C 6,1 C 3,4 C 85 % 1032,1 hPa 0,0 l/m 0 min 0 min 214 W/m 6,4 km/h (2 Bft) 63,83 %
14.04.2021 10:44 4,8 C 6,1 C 3,4 C 85 % 1032,1 hPa 0,0 l/m 0 min 0 min 209 W/m 6,4 km/h (2 Bft) 93,62 %
14.04.2021 10:42 4,8 C 6,1 C 3,4 C 86 % 1032,1 hPa 0,0 l/m 0 min 0 min 205 W/m 12,9 km/h (3 Bft) 95,65 %
14.04.2021 10:40 4,8 C 6,1 C 3,4 C 87 % 1032,2 hPa 0,0 l/m 0 min 0 min 202 W/m 9,7 km/h (2 Bft) 95,83 %
14.04.2021 10:38 4,8 C 6,1 C 3,4 C 87 % 1032,1 hPa 0,0 l/m 0 min 0 min 198 W/m 6,4 km/h (2 Bft) 95,74 %
14.04.2021 10:36 4,7 C 5,6 C 2,8 C 87 % 1032,2 hPa 0,0 l/m 0 min 0 min 191 W/m 6,4 km/h (2 Bft) 95,65 %
14.04.2021 10:34 4,6 C 5,6 C 2,8 C 87 % 1032,2 hPa 0,0 l/m 0 min 0 min 184 W/m 9,7 km/h (2 Bft) 97,87 %
14.04.2021 10:32 4,6 C 5,6 C 2,8 C 87 % 1032,1 hPa 0,0 l/m 0 min 0 min 179 W/m 9,7 km/h (2 Bft) 97,87 %
14.04.2021 10:30 4,6 C 5,6 C 2,8 C 87 % 1032,1 hPa 0,0 l/m 0 min 0 min 174 W/m 6,4 km/h (2 Bft) 97,87 %
14.04.2021 10:28 4,5 C 5,6 C 2,8 C 87 % 1032,1 hPa 0,0 l/m 0 min 0 min 171 W/m 9,7 km/h (2 Bft) 97,87 %
14.04.2021 10:26 4,5 C 5,6 C 2,8 C 87 % 1032,1 hPa 0,0 l/m 0 min 0 min 168 W/m 9,7 km/h (2 Bft) 95,74 %
14.04.2021 10:24 4,5 C 5,6 C 2,3 C 87 % 1032,2 hPa 0,0 l/m 0 min 0 min 163 W/m 12,9 km/h (3 Bft) 97,83 %
14.04.2021 10:22 4,5 C 5,6 C 2,3 C 87 % 1032,1 hPa 0,0 l/m 0 min 0 min 158 W/m 6,4 km/h (2 Bft) 97,87 %
14.04.2021 10:20 4,4 C 5,6 C 2,3 C 87 % 1032,1 hPa 0,0 l/m 0 min 0 min 152 W/m 9,7 km/h (2 Bft) 100,00 %
14.04.2021 10:18 4,4 C 5,0 C 2,3 C 86 % 1032,1 hPa 0,0 l/m 0 min 0 min 147 W/m 6,4 km/h (2 Bft) 100,00 %
14.04.2021 10:16 4,4 C 5,0 C 2,3 C 86 % 1032,1 hPa 0,0 l/m 0 min 0 min 147 W/m 6,4 km/h (2 Bft) 97,87 %
14.04.2021 10:14 4,4 C 5,0 C 2,3 C 86 % 1032,1 hPa 0,0 l/m 0 min 0 min 154 W/m 6,4 km/h (2 Bft) 97,87 %
14.04.2021 10:12 4,4 C 5,0 C 2,3 C 86 % 1032,1 hPa 0,0 l/m 0 min 0 min 163 W/m 9,7 km/h (2 Bft) 95,65 %
14.04.2021 10:10 4,4 C 5,0 C 2,3 C 85 % 1032,2 hPa 0,0 l/m 0 min 2 min 166 W/m 9,7 km/h (2 Bft) 100,00 %
14.04.2021 10:08 4,3 C 4,4 C 2,3 C 85 % 1032,2 hPa 0,0 l/m 0 min 2 min 153 W/m 9,7 km/h (2 Bft) 100,00 %
14.04.2021 10:06 4,3 C 4,4 C 2,3 C 85 % 1032,2 hPa 0,0 l/m 0 min 0 min 133 W/m 6,4 km/h (2 Bft) 100,00 %
14.04.2021 10:04 4,3 C 4,4 C 2,3 C 85 % 1032,2 hPa 0,0 l/m 0 min 0 min 114 W/m 6,4 km/h (2 Bft) 100,00 %
14.04.2021 10:02 4,3 C 4,4 C 2,3 C 85 % 1032,3 hPa 0,0 l/m 0 min 0 min 99 W/m 3,2 km/h (1 Bft) 95,74 %
14.04.2021 10:00 4,4 C 4,4 C 2,3 C 85 % 1032,3 hPa 0,0 l/m 0 min 0 min 99 W/m 3,2 km/h (1 Bft) 100,00 %
14.04.2021 09:58 4,4 C 5,0 C 2,3 C 85 % 1032,4 hPa 0,0 l/m 0 min 0 min 109 W/m 6,4 km/h (2 Bft) 100,00 %
14.04.2021 09:56 4,4 C 5,0 C 2,3 C 85 % 1032,3 hPa 0,0 l/m 0 min 0 min 118 W/m 6,4 km/h (2 Bft) 100,00 %
14.04.2021 09:54 4,4 C 5,0 C 2,3 C 85 % 1032,3 hPa 0,0 l/m 0 min 0 min 129 W/m 12,9 km/h (3 Bft) 97,87 %
14.04.2021 09:52 4,4 C 5,0 C 2,3 C 85 % 1032,4 hPa 0,0 l/m 0 min 0 min 143 W/m 16,1 km/h (3 Bft) 97,87 %
14.04.2021 09:50 4,5 C 5,6 C 2,8 C 85 % 1032,3 hPa 0,0 l/m 0 min 0 min 154 W/m 12,9 km/h (3 Bft) 97,83 %
14.04.2021 09:48 4,4 C 5,6 C 2,8 C 85 % 1032,4 hPa 0,0 l/m 0 min 0 min 163 W/m 9,7 km/h (2 Bft) 95,83 %
14.04.2021 09:46 4,4 C 5,6 C 2,8 C 85 % 1032,3 hPa 0,0 l/m 0 min 0 min 169 W/m 9,7 km/h (2 Bft) 95,74 %
14.04.2021 09:44 4,4 C 5,6 C 2,8 C 85 % 1032,4 hPa 0,0 l/m 0 min 0 min 174 W/m 12,9 km/h (3 Bft) 97,87 %
14.04.2021 09:42 4,4 C 5,6 C 2,8 C 85 % 1032,4 hPa 0,0 l/m 0 min 0 min 178 W/m 6,4 km/h (2 Bft) 97,87 %
14.04.2021 09:40 4,3 C 5,6 C 2,8 C 84 % 1032,4 hPa 0,0 l/m 0 min 0 min 187 W/m 6,4 km/h (2 Bft) 97,87 %
14.04.2021 09:38 4,3 C 5,6 C 2,8 C 84 % 1032,4 hPa 0,0 l/m 0 min 0 min 193 W/m 6,4 km/h (2 Bft) 95,65 %
14.04.2021 09:36 4,3 C 5,6 C 2,3 C 84 % 1032,3 hPa 0,0 l/m 0 min 0 min 198 W/m 9,7 km/h (2 Bft) 97,87 %
14.04.2021 09:34 4,3 C 5,6 C 2,8 C 84 % 1032,3 hPa 0,0 l/m 0 min 0 min 197 W/m 6,4 km/h (2 Bft) 97,87 %
14.04.2021 09:32 4,2 C 5,6 C 2,8 C 84 % 1032,3 hPa 0,0 l/m 0 min 0 min 191 W/m 12,9 km/h (3 Bft) 97,87 %
14.04.2021 09:30 4,2 C 5,6 C 2,8 C 84 % 1032,3 hPa 0,0 l/m 0 min 0 min 190 W/m 9,7 km/h (2 Bft) 97,87 %
14.04.2021 09:28 4,1 C 5,6 C 2,8 C 84 % 1032,3 hPa 0,0 l/m 0 min 0 min 196 W/m 9,7 km/h (2 Bft) 97,87 %
14.04.2021 09:26 4,1 C 6,1 C 2,8 C 84 % 1032,4 hPa 0,0 l/m 2 min 0 min 222 W/m 12,9 km/h (3 Bft) 95,65 %
14.04.2021 09:24 4,0 C 6,1 C 2,8 C 84 % 1032,3 hPa 0,0 l/m 2 min 0 min 256 W/m 9,7 km/h (2 Bft) 97,87 %
14.04.2021 09:22 3,9 C 6,1 C 2,8 C 85 % 1032,3 hPa 0,0 l/m 2 min 0 min 245 W/m 16,1 km/h (3 Bft) 97,87 %
14.04.2021 09:20 3,8 C 6,7 C 2,8 C 85 % 1032,3 hPa 0,0 l/m 2 min 0 min 221 W/m 6,4 km/h (2 Bft) 97,87 %
14.04.2021 09:18 3,7 C 6,7 C 2,8 C 85 % 1032,3 hPa 0,0 l/m 2 min 0 min 242 W/m 9,7 km/h (2 Bft) 97,87 %
14.04.2021 09:16 3,5 C 6,1 C 2,8 C 86 % 1032,2 hPa 0,0 l/m 2 min 0 min 269 W/m 16,1 km/h (3 Bft) 97,87 %
14.04.2021 09:14 3,4 C 6,1 C 2,8 C 86 % 1032,2 hPa 0,0 l/m 2 min 0 min 266 W/m 3,2 km/h (1 Bft) 97,83 %
14.04.2021 09:12 3,3 C 5,6 C 2,3 C 87 % 1032,2 hPa 0,0 l/m 2 min 0 min 278 W/m 9,7 km/h (2 Bft) 97,87 %
14.04.2021 09:10 3,1 C 5,0 C 2,3 C 87 % 1032,2 hPa 0,0 l/m 2 min 0 min 230 W/m 6,4 km/h (2 Bft) 97,87 %
14.04.2021 09:08 3,0 C 5,0 C 2,3 C 88 % 1032,2 hPa 0,0 l/m 2 min 0 min 258 W/m 12,9 km/h (3 Bft) 95,83 %
14.04.2021 09:06 2,9 C 5,0 C 2,3 C 89 % 1032,2 hPa 0,0 l/m 2 min 0 min 256 W/m 12,9 km/h (3 Bft) 97,87 %
14.04.2021 09:04 2,8 C 4,4 C 2,3 C 89 % 1032,2 hPa 0,0 l/m 2 min 0 min 251 W/m 9,7 km/h (2 Bft) 97,87 %
14.04.2021 09:02 2,6 C 4,4 C 1,7 C 89 % 1032,2 hPa 0,0 l/m 2 min 0 min 194 W/m 9,7 km/h (2 Bft) 98,15 %
14.04.2021 09:00 2,6 C 4,4 C 1,7 C 89 % 1032,2 hPa 0,0 l/m 0 min 0 min 162 W/m 9,7 km/h (2 Bft) 97,83 %
14.04.2021 08:58 2,5 C 4,4 C 1,7 C 89 % 1032,2 hPa 0,0 l/m 0 min 0 min 156 W/m 6,4 km/h (2 Bft) 97,87 %
14.04.2021 08:56 2,4 C 5,0 C 1,7 C 90 % 1032,1 hPa 0,0 l/m 0 min 0 min 164 W/m 6,4 km/h (2 Bft) 93,62 %
14.04.2021 08:54 2,3 C 5,0 C 1,7 C 89 % 1032,1 hPa 0,0 l/m 2 min 0 min 176 W/m 3,2 km/h (1 Bft) 100,00 %
14.04.2021 08:52 2,1 C 5,0 C 1,7 C 90 % 1032,1 hPa 0,0 l/m 2 min 0 min 186 W/m 6,4 km/h (2 Bft) 100,00 %
14.04.2021 08:50 2,0 C 4,4 C 1,7 C 90 % 1032,1 hPa 0,0 l/m 2 min 0 min 192 W/m 0,0 km/h (0 Bft) 97,87 %
14.04.2021 08:48 1,9 C 4,4 C 1,1 C 90 % 1032,1 hPa 0,0 l/m 2 min 0 min 187 W/m 3,2 km/h (1 Bft) 100,00 %
14.04.2021 08:46 1,8 C 4,4 C 1,1 C 90 % 1032,0 hPa 0,0 l/m 2 min 0 min 181 W/m 3,2 km/h (1 Bft) 100,00 %
14.04.2021 08:44 1,7 C 3,9 C 1,1 C 90 % 1032,0 hPa 0,0 l/m 2 min 0 min 176 W/m 3,2 km/h (1 Bft) 97,87 %
14.04.2021 08:42 1,6 C 3,9 C 1,1 C 90 % 1032,0 hPa 0,0 l/m 2 min 0 min 165 W/m 0,0 km/h (0 Bft) 97,14 %
14.04.2021 08:40 1,6 C 3,3 C 1,1 C 90 % 1032,0 hPa 0,0 l/m 2 min 0 min 156 W/m 0,0 km/h (0 Bft) 97,87 %
14.04.2021 08:38 1,5 C 3,3 C 0,6 C 90 % 1032,0 hPa 0,0 l/m 2 min 0 min 146 W/m 0,0 km/h (0 Bft) 97,87 %
14.04.2021 08:36 1,5 C 3,3 C 0,6 C 90 % 1031,9 hPa 0,0 l/m 0 min 0 min 134 W/m 0,0 km/h (0 Bft) 97,87 %
14.04.2021 08:34 1,4 C 2,8 C 0,6 C 91 % 1031,9 hPa 0,0 l/m 0 min 0 min 129 W/m 3,2 km/h (1 Bft) 97,87 %
14.04.2021 08:32 1,4 C 2,8 C 0,6 C 91 % 1031,9 hPa 0,0 l/m 0 min 0 min 124 W/m 0,0 km/h (0 Bft) 30,43 %
14.04.2021 08:30 1,3 C 2,8 C 0,6 C 91 % 1031,9 hPa 0,0 l/m 0 min 0 min 121 W/m 3,2 km/h (1 Bft) 91,49 %
14.04.2021 08:28 1,2 C 2,8 C 0,6 C 92 % 1031,9 hPa 0,0 l/m 0 min 0 min 116 W/m 0,0 km/h (0 Bft) 95,74 %
14.04.2021 08:26 1,1 C 2,8 C 0,6 C 92 % 1031,9 hPa 0,0 l/m 0 min 0 min 117 W/m 0,0 km/h (0 Bft) 97,87 %
14.04.2021 08:24 1,0 C 2,2 C 0,0 C 92 % 1031,9 hPa 0,0 l/m 0 min 0 min 122 W/m 0,0 km/h (0 Bft) 97,87 %
14.04.2021 08:22 0,9 C 2,2 C 0,0 C 92 % 1031,9 hPa 0,0 l/m 2 min 0 min 126 W/m 3,2 km/h (1 Bft) 97,87 %
14.04.2021 08:20 0,8 C 2,2 C 0,0 C 92 % 1031,9 hPa 0,0 l/m 2 min 0 min 128 W/m 3,2 km/h (1 Bft) 97,83 %
14.04.2021 08:18 0,6 C 2,2 C 0,0 C 92 % 1031,8 hPa 0,0 l/m 2 min 0 min 127 W/m 3,2 km/h (1 Bft) 97,87 %
14.04.2021 08:16 0,5 C 2,2 C -0,5 C 92 % 1031,7 hPa 0,0 l/m 2 min 0 min 125 W/m 0,0 km/h (0 Bft) 95,74 %
14.04.2021 08:14 0,5 C 1,7 C -0,5 C 92 % 1031,8 hPa 0,0 l/m 2 min 0 min 121 W/m 3,2 km/h (1 Bft) 95,74 %
14.04.2021 08:12 0,5 C 1,7 C -0,5 C 92 % 1031,7 hPa 0,0 l/m 2 min 0 min 119 W/m 3,2 km/h (1 Bft) 97,87 %
14.04.2021 08:10 0,5 C 1,7 C -1,1 C 92 % 1031,7 hPa 0,0 l/m 2 min 0 min 114 W/m 0,0 km/h (0 Bft) 95,74 %
14.04.2021 08:08 0,4 C 1,1 C -1,1 C 92 % 1031,7 hPa 0,0 l/m 0 min 0 min 107 W/m 3,2 km/h (1 Bft) 97,87 %
14.04.2021 08:06 0,4 C 1,1 C -1,1 C 92 % 1031,8 hPa 0,0 l/m 0 min 0 min 100 W/m 3,2 km/h (1 Bft) 97,87 %
14.04.2021 08:04 0,3 C 1,1 C -1,6 C 92 % 1031,7 hPa 0,0 l/m 0 min 0 min 94 W/m 0,0 km/h (0 Bft) 97,87 %
14.04.2021 08:02 0,3 C 0,6 C -1,6 C 92 % 1031,7 hPa 0,0 l/m 0 min 0 min 86 W/m 0,0 km/h (0 Bft) 95,83 %
14.04.2021 08:00 0,3 C 0,6 C -1,6 C 92 % 1031,7 hPa 0,0 l/m 0 min 0 min 79 W/m 0,0 km/h (0 Bft) 97,87 %
14.04.2021 07:58 0,3 C 0,6 C -1,6 C 92 % 1031,7 hPa 0,0 l/m 0 min 0 min 73 W/m 3,2 km/h (1 Bft) 95,74 %
14.04.2021 07:56 0,3 C 0,6 C -1,6 C 92 % 1031,7 hPa 0,0 l/m 0 min 0 min 68 W/m 6,4 km/h (2 Bft) 95,83 %
14.04.2021 07:54 0,2 C 0,6 C -1,6 C 92 % 1031,6 hPa 0,0 l/m 0 min 0 min 63 W/m 3,2 km/h (1 Bft) 93,75 %
14.04.2021 07:52 0,2 C 0,6 C -1,6 C 92 % 1031,6 hPa 0,0 l/m 0 min 0 min 57 W/m 3,2 km/h (1 Bft) 95,65 %
14.04.2021 07:50 0,1 C 0,6 C -1,6 C 92 % 1031,6 hPa 0,0 l/m 0 min 0 min 53 W/m 3,2 km/h (1 Bft) 95,74 %
14.04.2021 07:48 0,1 C 0,6 C -1,6 C 92 % 1031,5 hPa 0,0 l/m 0 min 0 min 50 W/m 3,2 km/h (1 Bft) 97,87 %
14.04.2021 07:46 0,1 C 0,6 C -1,6 C 92 % 1031,5 hPa 0,0 l/m 0 min 0 min 49 W/m 3,2 km/h (1 Bft) 95,83 %
14.04.2021 07:44 0,1 C 0,0 C -1,6 C 92 % 1031,5 hPa 0,0 l/m 0 min 0 min 46 W/m 3,2 km/h (1 Bft) 95,74 %
14.04.2021 07:42 0,0 C 0,0 C -1,6 C 92 % 1031,5 hPa 0,0 l/m 0 min 0 min 45 W/m 0,0 km/h (0 Bft) 97,87 %
14.04.2021 07:40 0,0 C 0,6 C -1,6 C 92 % 1031,6 hPa 0,0 l/m 0 min 0 min 42 W/m 0,0 km/h (0 Bft) 95,65 %
14.04.2021 07:38 0,0 C 0,6 C -1,6 C 92 % 1031,5 hPa 0,0 l/m 0 min 0 min 40 W/m 3,2 km/h (1 Bft) 96,30 %
14.04.2021 07:36 0,0 C 0,6 C -1,6 C 92 % 1031,6 hPa 0,0 l/m 0 min 0 min 39 W/m 6,4 km/h (2 Bft) 97,83 %
14.04.2021 07:34 -0,1 C 0,6 C -1,1 C 92 % 1031,5 hPa 0,0 l/m 0 min 0 min 39 W/m 3,2 km/h (1 Bft) 97,87 %
14.04.2021 07:32 -0,1 C 0,6 C -1,1 C 92 % 1031,5 hPa 0,0 l/m 0 min 0 min 36 W/m 0,0 km/h (0 Bft) 97,87 %
14.04.2021 07:30 -0,1 C 0,6 C -1,1 C 92 % 1031,4 hPa 0,0 l/m 0 min 0 min 32 W/m 0,0 km/h (0 Bft) 97,87 %
14.04.2021 07:28 -0,2 C 0,0 C -1,6 C 92 % 1031,4 hPa 0,0 l/m 0 min 0 min 31 W/m 0,0 km/h (0 Bft) 95,74 %
14.04.2021 07:26 -0,2 C 0,0 C -1,6 C 91 % 1031,4 hPa 0,0 l/m 0 min 0 min 30 W/m 3,2 km/h (1 Bft) 97,83 %
14.04.2021 07:24 -0,3 C 0,0 C -1,6 C 91 % 1031,4 hPa 0,0 l/m 0 min 0 min 27 W/m 3,2 km/h (1 Bft) 100,00 %
14.04.2021 07:22 -0,4 C 0,0 C -1,6 C 91 % 1031,4 hPa 0,0 l/m 0 min 0 min 26 W/m 0,0 km/h (0 Bft) 100,00 %
14.04.2021 07:20 -0,4 C 0,0 C -1,6 C 91 % 1031,5 hPa 0,0 l/m 0 min 0 min 25 W/m 0,0 km/h (0 Bft) 97,14 %
14.04.2021 07:18 -0,4 C 0,0 C -1,6 C 91 % 1031,5 hPa 0,0 l/m 0 min 0 min 22 W/m 0,0 km/h (0 Bft) 100,00 %
14.04.2021 07:16 -0,4 C 0,0 C -1,6 C 91 % 1031,5 hPa 0,0 l/m 0 min 0 min 19 W/m 0,0 km/h (0 Bft) 97,87 %
14.04.2021 07:14 -0,5 C 0,0 C -2,2 C 91 % 1031,4 hPa 0,0 l/m 0 min 0 min 18 W/m 0,0 km/h (0 Bft) 100,00 %
14.04.2021 07:12 -0,5 C 0,0 C -2,2 C 91 % 1031,4 hPa 0,0 l/m 0 min 0 min 16 W/m 0,0 km/h (0 Bft) 100,00 %
14.04.2021 07:10 -0,5 C 0,0 C -2,2 C 91 % 1031,3 hPa 0,0 l/m 0 min 0 min 14 W/m 0,0 km/h (0 Bft) 100,00 %
14.04.2021 07:08 -0,6 C -0,6 C -2,2 C 91 % 1031,3 hPa 0,0 l/m 0 min 0 min 14 W/m 0,0 km/h (0 Bft) 100,00 %
14.04.2021 07:06 -0,6 C -0,6 C -2,2 C 91 % 1031,4 hPa 0,0 l/m 0 min 0 min 12 W/m 0,0 km/h (0 Bft) 100,00 %
14.04.2021 07:04 -0,7 C -0,6 C -2,2 C 91 % 1031,4 hPa 0,0 l/m 0 min 0 min 12 W/m 0,0 km/h (0 Bft) 100,00 %
14.04.2021 07:02 -0,7 C -0,6 C -2,2 C 91 % 1031,3 hPa 0,0 l/m 0 min 0 min 11 W/m 0,0 km/h (0 Bft) 100,00 %
14.04.2021 07:00 -0,8 C -0,6 C -2,2 C 90 % 1031,3 hPa 0,0 l/m 0 min 0 min 9 W/m 0,0 km/h (0 Bft) 100,00 %
14.04.2021 06:58 -0,9 C -0,6 C -2,2 C 90 % 1031,3 hPa 0,0 l/m 0 min 0 min 7 W/m 0,0 km/h (0 Bft) 100,00 %
14.04.2021 06:56 -0,9 C -0,6 C -2,7 C 90 % 1031,3 hPa 0,0 l/m 0 min 0 min 7 W/m 0,0 km/h (0 Bft) 100,00 %
14.04.2021 06:54 -0,9 C -1,1 C -2,7 C 90 % 1031,3 hPa 0,0 l/m 0 min 0 min 5 W/m 0,0 km/h (0 Bft) 100,00 %
14.04.2021 06:52 -0,9 C -1,1 C -2,7 C 90 % 1031,3 hPa 0,0 l/m 0 min 0 min 5 W/m 0,0 km/h (0 Bft) 100,00 %
14.04.2021 06:50 -0,8 C -1,1 C -2,7 C 90 % 1031,3 hPa 0,0 l/m 0 min 0 min 5 W/m 0,0 km/h (0 Bft) 100,00 %
14.04.2021 06:48 -0,8 C -1,1 C -2,7 C 90 % 1031,2 hPa 0,0 l/m 0 min 0 min 1 W/m 0,0 km/h (0 Bft) 100,00 %
14.04.2021 06:46 -0,8 C -1,1 C -2,7 C 90 % 1031,3 hPa 0,0 l/m 0 min 0 min 0 W/m 0,0 km/h (0 Bft) 100,00 %
14.04.2021 06:44 -0,8 C -1,1 C -2,7 C 90 % 1031,2 hPa 0,0 l/m 0 min 0 min 0 W/m 0,0 km/h (0 Bft) 100,00 %
14.04.2021 06:42 -0,8 C -1,1 C -2,7 C 90 % 1031,2 hPa 0,0 l/m 0 min 0 min 0 W/m 0,0 km/h (0 Bft) 100,00 %
14.04.2021 06:40 -0,8 C -1,1 C -2,7 C 90 % 1031,2 hPa 0,0 l/m 0 min 0 min 0 W/m 0,0 km/h (0 Bft) 100,00 %
14.04.2021 06:38 -0,9 C -1,1 C -2,7 C 90 % 1031,2 hPa 0,0 l/m 0 min 0 min 0 W/m 3,2 km/h (1 Bft) 97,87 %
14.04.2021 06:36 -0,9 C -1,1 C -2,7 C 90 % 1031,2 hPa 0,0 l/m 0 min 0 min 0 W/m 0,0 km/h (0 Bft) 100,00 %
14.04.2021 06:34 -0,9 C -1,1 C -2,7 C 90 % 1031,1 hPa 0,0 l/m 0 min 0 min 0 W/m 0,0 km/h (0 Bft) 100,00 %
14.04.2021 06:32 -0,9 C -1,1 C -2,7 C 90 % 1031,1 hPa 0,0 l/m 0 min 0 min 0 W/m 0,0 km/h (0 Bft) 100,00 %
14.04.2021 06:30 -1,0 C -1,1 C -2,7 C 89 % 1031,2 hPa 0,0 l/m 0 min 0 min 0 W/m 0,0 km/h (0 Bft) 100,00 %
14.04.2021 06:28 -1,0 C -1,7 C -2,7 C 89 % 1031,1 hPa 0,0 l/m 0 min 0 min 0 W/m 0,0 km/h (0 Bft) 100,00 %
14.04.2021 06:26 -1,0 C -1,7 C -2,7 C 89 % 1031,2 hPa 0,0 l/m 0 min 0 min 0 W/m 0,0 km/h (0 Bft) 100,00 %
14.04.2021 06:24 -1,0 C -1,7 C -3,3 C 89 % 1031,2 hPa 0,0 l/m 0 min 0 min 0 W/m 0,0 km/h (0 Bft) 100,00 %
14.04.2021 06:22 -1,0 C -1,7 C -3,3 C 89 % 1031,2 hPa 0,0 l/m 0 min 0 min 0 W/m 0,0 km/h (0 Bft) 100,00 %
14.04.2021 06:20 -1,0 C -1,7 C -3,3 C 89 % 1031,2 hPa 0,0 l/m 0 min 0 min 0 W/m 0,0 km/h (0 Bft) 100,00 %
14.04.2021 06:18 -1,0 C -1,7 C -3,3 C 89 % 1031,2 hPa 0,0 l/m 0 min 0 min 0 W/m 0,0 km/h (0 Bft) 100,00 %
14.04.2021 06:16 -1,0 C -1,7 C -3,3 C 89 % 1031,2 hPa 0,0 l/m 0 min 0 min 0 W/m 0,0 km/h (0 Bft) 100,00 %
14.04.2021 06:14 -1,0 C -1,7 C -3,3 C 89 % 1031,2 hPa 0,0 l/m 0 min 0 min 0 W/m 0,0 km/h (0 Bft) 97,87 %
14.04.2021 06:12 -0,9 C -1,7 C -3,3 C 89 % 1031,2 hPa 0,0 l/m 0 min 0 min 0 W/m 0,0 km/h (0 Bft) 100,00 %
14.04.2021 06:10 -0,9 C -1,7 C -3,3 C 89 % 1031,2 hPa 0,0 l/m 0 min 0 min 0 W/m 0,0 km/h (0 Bft) 100,00 %
14.04.2021 06:08 -0,9 C -1,7 C -3,3 C 89 % 1031,2 hPa 0,0 l/m 0 min 0 min 0 W/m 0,0 km/h (0 Bft) 97,85 %
14.04.2021 06:04 -0,9 C -1,7 C -3,3 C 89 % 1031,2 hPa 0,0 l/m 0 min 0 min 0 W/m 0,0 km/h (0 Bft) 97,87 %
14.04.2021 06:02 -0,9 C -1,7 C -3,3 C 89 % 1031,2 hPa 0,0 l/m 0 min 0 min 0 W/m 0,0 km/h (0 Bft) 97,92 %
14.04.2021 06:00 -0,9 C -1,1 C -2,7 C 89 % 1031,2 hPa 0,0 l/m 0 min 0 min 0 W/m 0,0 km/h (0 Bft) 95,74 %
14.04.2021 05:58 -0,8 C -1,1 C -2,7 C 89 % 1031,1 hPa 0,0 l/m 0 min 0 min 0 W/m 0,0 km/h (0 Bft) 97,87 %
14.04.2021 05:56 -0,8 C -1,1 C -2,7 C 89 % 1031,2 hPa 0,0 l/m 0 min 0 min 0 W/m 0,0 km/h (0 Bft) 97,83 %
14.04.2021 05:54 -0,8 C -1,1 C -2,7 C 89 % 1031,2 hPa 0,0 l/m 0 min 0 min 0 W/m 0,0 km/h (0 Bft) 100,00 %
14.04.2021 05:52 -0,8 C -1,1 C -2,7 C 89 % 1031,2 hPa 0,0 l/m 0 min 0 min 0 W/m 0,0 km/h (0 Bft) 100,00 %
14.04.2021 05:50 -0,8 C -1,1 C -2,7 C 88 % 1031,2 hPa 0,0 l/m 0 min 0 min 0 W/m 0,0 km/h (0 Bft) 95,74 %
14.04.2021 05:48 -0,9 C -1,1 C -2,7 C 88 % 1031,3 hPa 0,0 l/m 0 min 0 min 0 W/m 0,0 km/h (0 Bft) 95,74 %
14.04.2021 05:46 -0,9 C -1,7 C -3,3 C 88 % 1031,3 hPa 0,0 l/m 0 min 0 min 0 W/m 0,0 km/h (0 Bft) 97,87 %
14.04.2021 05:44 -0,9 C -1,7 C -3,3 C 88 % 1031,3 hPa 0,0 l/m 0 min 0 min 0 W/m 0,0 km/h (0 Bft) 97,83 %
14.04.2021 05:42 -0,9 C -1,7 C -3,3 C 88 % 1031,3 hPa 0,0 l/m 0 min 0 min 0 W/m 0,0 km/h (0 Bft) 100,00 %
14.04.2021 05:40 -0,9 C -1,7 C -3,3 C 88 % 1031,3 hPa 0,0 l/m 0 min 0 min 0 W/m 0,0 km/h (0 Bft) 97,87 %
14.04.2021 05:38 -0,9 C -1,7 C -3,3 C 88 % 1031,2 hPa 0,0 l/m 0 min 0 min 0 W/m 0,0 km/h (0 Bft) 97,92 %
14.04.2021 05:36 -1,0 C -1,7 C -3,3 C 88 % 1031,3 hPa 0,0 l/m 0 min 0 min 0 W/m 0,0 km/h (0 Bft) 97,87 %
14.04.2021 05:34 -1,0 C -1,7 C -3,3 C 88 % 1031,3 hPa 0,0 l/m 0 min 0 min 0 W/m 0,0 km/h (0 Bft) 97,87 %
14.04.2021 05:32 -1,0 C -1,7 C -3,3 C 88 % 1031,3 hPa 0,0 l/m 0 min 0 min 0 W/m 0,0 km/h (0 Bft) 100,00 %
14.04.2021 05:30 -0,9 C -1,7 C -3,3 C 88 % 1031,4 hPa 0,0 l/m 0 min 0 min 0 W/m 0,0 km/h (0 Bft) 100,00 %
14.04.2021 05:28 -0,9 C -1,7 C -3,3 C 88 % 1031,3 hPa 0,0 l/m 0 min 0 min 0 W/m 0,0 km/h (0 Bft) 100,00 %
14.04.2021 05:26 -0,9 C -1,7 C -3,3 C 87 % 1031,3 hPa 0,0 l/m 0 min 0 min 0 W/m 0,0 km/h (0 Bft) 100,00 %
14.04.2021 05:24 -0,9 C -1,7 C -3,3 C 87 % 1031,4 hPa 0,0 l/m 0 min 0 min 0 W/m 0,0 km/h (0 Bft) 100,00 %
14.04.2021 05:22 -0,9 C -1,7 C -3,3 C 87 % 1031,5 hPa 0,0 l/m 0 min 0 min 0 W/m 0,0 km/h (0 Bft) 100,00 %
14.04.2021 05:20 -0,8 C -1,7 C -3,3 C 87 % 1031,5 hPa 0,0 l/m 0 min 0 min 0 W/m 0,0 km/h (0 Bft) 100,00 %
14.04.2021 05:18 -0,8 C -1,7 C -3,3 C 87 % 1031,4 hPa 0,0 l/m 0 min 0 min 0 W/m 0,0 km/h (0 Bft) 100,00 %
14.04.2021 05:16 -0,8 C -1,7 C -3,3 C 87 % 1031,4 hPa 0,0 l/m 0 min 0 min 0 W/m 0,0 km/h (0 Bft) 100,00 %
14.04.2021 05:14 -0,8 C -1,7 C -3,3 C 87 % 1031,5 hPa 0,0 l/m 0 min 0 min 0 W/m 0,0 km/h (0 Bft) 100,00 %
14.04.2021 05:12 -0,8 C -1,7 C -3,3 C 87 % 1031,4 hPa 0,0 l/m 0 min 0 min 0 W/m 0,0 km/h (0 Bft) 100,00 %
14.04.2021 05:10 -0,8 C -1,7 C -3,3 C 87 % 1031,4 hPa 0,0 l/m 0 min 0 min 0 W/m 0,0 km/h (0 Bft) 100,00 %
14.04.2021 05:08 -0,9 C -1,7 C -3,3 C 87 % 1031,4 hPa 0,0 l/m 0 min 0 min 0 W/m 0,0 km/h (0 Bft) 97,87 %
14.04.2021 05:06 -0,9 C -1,7 C -3,3 C 87 % 1031,4 hPa 0,0 l/m 0 min 0 min 0 W/m 0,0 km/h (0 Bft) 100,00 %
14.04.2021 05:04 -0,9 C -1,7 C -3,3 C 86 % 1031,5 hPa 0,0 l/m 0 min 0 min 0 W/m 0,0 km/h (0 Bft) 100,00 %
14.04.2021 05:02 -0,9 C -1,7 C -3,3 C 86 % 1031,5 hPa 0,0 l/m 0 min 0 min 0 W/m 0,0 km/h (0 Bft) 100,00 %
14.04.2021 05:00 -0,9 C -1,7 C -3,3 C 86 % 1031,6 hPa 0,0 l/m 0 min 0 min 0 W/m 0,0 km/h (0 Bft) 97,87 %
14.04.2021 04:58 -0,9 C -1,7 C -3,3 C 86 % 1031,6 hPa 0,0 l/m 0 min 0 min 0 W/m 0,0 km/h (0 Bft) 100,00 %
14.04.2021 04:56 -0,8 C -1,7 C -3,3 C 86 % 1031,6 hPa 0,0 l/m 0 min 0 min 0 W/m 0,0 km/h (0 Bft) 100,00 %
14.04.2021 04:54 -0,8 C -1,7 C -3,3 C 86 % 1031,6 hPa 0,0 l/m 0 min 0 min 0 W/m 0,0 km/h (0 Bft) 100,00 %
14.04.2021 04:52 -0,8 C -1,7 C -3,3 C 86 % 1031,6 hPa 0,0 l/m 0 min 0 min 0 W/m 0,0 km/h (0 Bft) 97,87 %
14.04.2021 04:50 -0,7 C -1,7 C -3,3 C 86 % 1031,6 hPa 0,0 l/m 0 min 0 min 0 W/m 0,0 km/h (0 Bft) 100,00 %
14.04.2021 04:48 -0,7 C -1,7 C -3,3 C 86 % 1031,6 hPa 0,0 l/m 0 min 0 min 0 W/m 0,0 km/h (0 Bft) 100,00 %
14.04.2021 04:46 -0,7 C -1,7 C -3,3 C 86 % 1031,6 hPa 0,0 l/m 0 min 0 min 0 W/m 0,0 km/h (0 Bft) 100,00 %
14.04.2021 04:44 -0,7 C -1,7 C -3,3 C 86 % 1031,6 hPa 0,0 l/m 0 min 0 min 0 W/m 0,0 km/h (0 Bft) 100,00 %
14.04.2021 04:42 -0,7 C -1,7 C -3,3 C 86 % 1031,6 hPa 0,0 l/m 0 min 0 min 0 W/m 0,0 km/h (0 Bft) 100,00 %
14.04.2021 04:40 -0,7 C -1,7 C -3,3 C 85 % 1031,6 hPa 0,0 l/m 0 min 0 min 0 W/m 0,0 km/h (0 Bft) 97,87 %
14.04.2021 04:38 -0,8 C -1,7 C -3,3 C 85 % 1031,6 hPa 0,0 l/m 0 min 0 min 0 W/m 0,0 km/h (0 Bft) 100,00 %
14.04.2021 04:36 -0,8 C -1,7 C -3,3 C 85 % 1031,7 hPa 0,0 l/m 0 min 0 min 0 W/m 0,0 km/h (0 Bft) 95,74 %
14.04.2021 04:34 -0,8 C -1,7 C -3,3 C 85 % 1031,7 hPa 0,0 l/m 0 min 0 min 0 W/m 0,0 km/h (0 Bft) 54,35 %
14.04.2021 04:32 -0,7 C -1,7 C -3,3 C 85 % 1031,7 hPa 0,0 l/m 0 min 0 min 0 W/m 0,0 km/h (0 Bft) 93,62 %
14.04.2021 04:30 -0,7 C -1,7 C -3,3 C 85 % 1031,7 hPa 0,0 l/m 0 min 0 min 0 W/m 0,0 km/h (0 Bft) 93,62 %
14.04.2021 04:28 -0,7 C -1,7 C -3,3 C 85 % 1031,7 hPa 0,0 l/m 0 min 0 min 0 W/m 0,0 km/h (0 Bft) 93,62 %
14.04.2021 04:26 -0,7 C -1,7 C -3,3 C 85 % 1031,7 hPa 0,0 l/m 0 min 0 min 0 W/m 0,0 km/h (0 Bft) 93,48 %
14.04.2021 04:24 -0,7 C -1,7 C -3,3 C 85 % 1031,7 hPa 0,0 l/m 0 min 0 min 0 W/m 0,0 km/h (0 Bft) 95,74 %
14.04.2021 04:22 -0,6 C -1,7 C -3,3 C 85 % 1031,7 hPa 0,0 l/m 0 min 0 min 0 W/m 0,0 km/h (0 Bft) 93,62 %
14.04.2021 04:20 -0,6 C -1,7 C -3,3 C 85 % 1031,7 hPa 0,0 l/m 0 min 0 min 0 W/m 0,0 km/h (0 Bft) 95,74 %
14.04.2021 04:18 -0,6 C -1,7 C -3,3 C 85 % 1031,7 hPa 0,0 l/m 0 min 0 min 0 W/m 0,0 km/h (0 Bft) 93,62 %
14.04.2021 04:16 -0,6 C -1,7 C -3,3 C 85 % 1031,7 hPa 0,0 l/m 0 min 0 min 0 W/m 0,0 km/h (0 Bft) 93,62 %
14.04.2021 04:14 -0,6 C -1,7 C -3,3 C 85 % 1031,8 hPa 0,0 l/m 0 min 0 min 0 W/m 0,0 km/h (0 Bft) 93,48 %
14.04.2021 04:12 -0,6 C -1,7 C -3,3 C 84 % 1031,7 hPa 0,0 l/m 0 min 0 min 0 W/m 0,0 km/h (0 Bft) 97,87 %
14.04.2021 04:10 -0,5 C -1,7 C -3,3 C 84 % 1031,8 hPa 0,0 l/m 0 min 0 min 0 W/m 0,0 km/h (0 Bft) 97,87 %
14.04.2021 04:08 -0,5 C -1,7 C -3,3 C 84 % 1031,8 hPa 0,0 l/m 0 min 0 min 0 W/m 0,0 km/h (0 Bft) 95,74 %
14.04.2021 04:06 -0,5 C -1,1 C -3,3 C 84 % 1031,8 hPa 0,0 l/m 0 min 0 min 0 W/m 0,0 km/h (0 Bft) 95,74 %
14.04.2021 04:04 -0,5 C -1,1 C -3,3 C 84 % 1031,8 hPa 0,0 l/m 0 min 0 min 0 W/m 0,0 km/h (0 Bft) 97,83 %
14.04.2021 04:02 -0,5 C -1,1 C -3,3 C 84 % 1031,8 hPa 0,0 l/m 0 min 0 min 0 W/m 0,0 km/h (0 Bft) 96,88 %
14.04.2021 04:00 -0,4 C -1,1 C -3,3 C 84 % 1031,9 hPa 0,0 l/m 0 min 0 min 0 W/m 0,0 km/h (0 Bft) 97,87 %
14.04.2021 03:58 -0,4 C -1,1 C -3,3 C 84 % 1031,8 hPa 0,0 l/m 0 min 0 min 0 W/m 0,0 km/h (0 Bft) 95,65 %
14.04.2021 03:56 -0,4 C -1,1 C -3,3 C 84 % 1031,8 hPa 0,0 l/m 0 min 0 min 0 W/m 0,0 km/h (0 Bft) 97,87 %
14.04.2021 03:54 -0,4 C -1,1 C -3,3 C 84 % 1031,8 hPa 0,0 l/m 0 min 0 min 0 W/m 0,0 km/h (0 Bft) 97,87 %
14.04.2021 03:52 -0,4 C -1,1 C -3,3 C 83 % 1031,9 hPa 0,0 l/m 0 min 0 min 0 W/m 0,0 km/h (0 Bft) 95,74 %
14.04.2021 03:50 -0,3 C -1,7 C -3,3 C 83 % 1031,8 hPa 0,0 l/m 0 min 0 min 0 W/m 0,0 km/h (0 Bft) 97,87 %
14.04.2021 03:48 -0,2 C -1,7 C -3,3 C 83 % 1031,8 hPa 0,0 l/m 0 min 0 min 0 W/m 0,0 km/h (0 Bft) 97,87 %
14.04.2021 03:46 -0,2 C -1,7 C -3,3 C 83 % 1031,9 hPa 0,0 l/m 0 min 0 min 0 W/m 0,0 km/h (0 Bft) 97,83 %
14.04.2021 03:44 -0,2 C -1,7 C -3,3 C 83 % 1031,9 hPa 0,0 l/m 0 min 0 min 0 W/m 0,0 km/h (0 Bft) 97,87 %
14.04.2021 03:42 -0,1 C -1,7 C -3,3 C 83 % 1031,9 hPa 0,0 l/m 0 min 0 min 0 W/m 0,0 km/h (0 Bft) 97,87 %
14.04.2021 03:40 -0,1 C -1,7 C -3,3 C 83 % 1031,9 hPa 0,0 l/m 0 min 0 min 0 W/m 0,0 km/h (0 Bft) 97,87 %
14.04.2021 03:38 -0,1 C -1,7 C -3,3 C 83 % 1031,9 hPa 0,0 l/m 0 min 0 min 0 W/m 0,0 km/h (0 Bft) 97,92 %
14.04.2021 03:36 -0,1 C -1,7 C -3,3 C 83 % 1031,9 hPa 0,0 l/m 0 min 0 min 0 W/m 0,0 km/h (0 Bft) 95,74 %
14.04.2021 03:34 -0,1 C -1,7 C -2,7 C 83 % 1031,9 hPa 0,0 l/m 0 min 0 min 0 W/m 0,0 km/h (0 Bft) 95,65 %
14.04.2021 03:32 0,0 C -1,1 C -2,7 C 83 % 1031,8 hPa 0,0 l/m 0 min 0 min 0 W/m 0,0 km/h (0 Bft) 97,87 %
14.04.2021 03:30 0,0 C -1,1 C -2,7 C 83 % 1031,8 hPa 0,0 l/m 0 min 0 min 0 W/m 0,0 km/h (0 Bft) 97,87 %
14.04.2021 03:28 0,0 C -1,1 C -2,7 C 83 % 1031,8 hPa 0,0 l/m 0 min 0 min 0 W/m 0,0 km/h (0 Bft) 97,87 %
14.04.2021 03:26 0,0 C -1,1 C -2,7 C 83 % 1031,8 hPa 0,0 l/m 0 min 0 min 0 W/m 0,0 km/h (0 Bft) 95,74 %
14.04.2021 03:24 0,1 C -1,1 C -2,7 C 83 % 1031,9 hPa 0,0 l/m 0 min 0 min 0 W/m 0,0 km/h (0 Bft) 97,87 %
14.04.2021 03:22 0,1 C -1,1 C -2,7 C 83 % 1031,9 hPa 0,0 l/m 0 min 0 min 0 W/m 0,0 km/h (0 Bft) 97,83 %
14.04.2021 03:20 0,1 C -1,1 C -2,7 C 83 % 1031,8 hPa 0,0 l/m 0 min 0 min 0 W/m 0,0 km/h (0 Bft) 97,87 %
14.04.2021 03:18 0,1 C -1,1 C -2,7 C 82 % 1031,9 hPa 0,0 l/m 0 min 0 min 0 W/m 0,0 km/h (0 Bft) 95,74 %
14.04.2021 03:16 0,2 C -1,1 C -2,7 C 82 % 1031,9 hPa 0,0 l/m 0 min 0 min 0 W/m 0,0 km/h (0 Bft) 85,71 %
14.04.2021 03:14 0,2 C -1,1 C -2,7 C 82 % 1031,9 hPa 0,0 l/m 0 min 0 min 0 W/m 0,0 km/h (0 Bft) 95,74 %
14.04.2021 03:12 0,2 C -1,1 C -2,7 C 82 % 1031,9 hPa 0,0 l/m 0 min 0 min 0 W/m 0,0 km/h (0 Bft) 97,87 %
14.04.2021 03:10 0,3 C -1,1 C -2,7 C 82 % 1031,9 hPa 0,0 l/m 0 min 0 min 0 W/m 0,0 km/h (0 Bft) 97,83 %
14.04.2021 03:08 0,3 C -1,1 C -2,7 C 81 % 1031,9 hPa 0,0 l/m 0 min 0 min 0 W/m 0,0 km/h (0 Bft) 93,62 %
14.04.2021 03:06 0,3 C -1,1 C -2,7 C 81 % 1031,9 hPa 0,0 l/m 0 min 0 min 0 W/m 0,0 km/h (0 Bft) 95,74 %
14.04.2021 03:04 0,3 C -1,1 C -2,7 C 81 % 1031,9 hPa 0,0 l/m 0 min 0 min 0 W/m 0,0 km/h (0 Bft) 91,49 %
14.04.2021 03:02 0,3 C -1,1 C -2,7 C 81 % 1032,0 hPa 0,0 l/m 0 min 0 min 0 W/m 0,0 km/h (0 Bft) 91,49 %
14.04.2021 03:00 0,3 C -1,1 C -2,7 C 81 % 1031,9 hPa 0,0 l/m 0 min 0 min 0 W/m 0,0 km/h (0 Bft) 93,48 %
14.04.2021 02:58 0,4 C -0,6 C -2,7 C 81 % 1031,9 hPa 0,0 l/m 0 min 0 min 0 W/m 0,0 km/h (0 Bft) 95,74 %
14.04.2021 02:56 0,4 C -1,1 C -2,7 C 81 % 1032,0 hPa 0,0 l/m 0 min 0 min 0 W/m 0,0 km/h (0 Bft) 95,74 %
14.04.2021 02:54 0,4 C -1,1 C -2,7 C 81 % 1032,0 hPa 0,0 l/m 0 min 0 min 0 W/m 0,0 km/h (0 Bft) 95,74 %
14.04.2021 02:52 0,5 C -0,6 C -2,7 C 81 % 1032,0 hPa 0,0 l/m 0 min 0 min 0 W/m 0,0 km/h (0 Bft) 97,87 %
14.04.2021 02:50 0,5 C -0,6 C -2,7 C 81 % 1032,0 hPa 0,0 l/m 0 min 0 min 0 W/m 0,0 km/h (0 Bft) 95,74 %
14.04.2021 02:48 0,5 C -0,6 C -2,7 C 80 % 1032,0 hPa 0,0 l/m 0 min 0 min 0 W/m 0,0 km/h (0 Bft) 97,87 %
14.04.2021 02:46 0,5 C -0,6 C -2,7 C 81 % 1032,0 hPa 0,0 l/m 0 min 0 min 0 W/m 0,0 km/h (0 Bft) 97,83 %
14.04.2021 02:44 0,5 C -0,6 C -2,7 C 81 % 1032,0 hPa 0,0 l/m 0 min 0 min 0 W/m 0,0 km/h (0 Bft) 97,87 %
14.04.2021 02:42 0,6 C -0,6 C -2,7 C 81 % 1032,0 hPa 0,0 l/m 0 min 0 min 0 W/m 0,0 km/h (0 Bft) 100,00 %
14.04.2021 02:40 0,6 C -0,6 C -2,7 C 81 % 1032,0 hPa 0,0 l/m 0 min 0 min 0 W/m 0,0 km/h (0 Bft) 97,87 %
14.04.2021 02:38 0,6 C -0,6 C -2,7 C 80 % 1032,0 hPa 0,0 l/m 0 min 0 min 0 W/m 0,0 km/h (0 Bft) 100,00 %
14.04.2021 02:36 0,7 C -0,6 C -2,7 C 80 % 1032,0 hPa 0,0 l/m 0 min 0 min 0 W/m 0,0 km/h (0 Bft) 100,00 %
14.04.2021 02:34 0,7 C -0,6 C -2,7 C 80 % 1032,1 hPa 0,0 l/m 0 min 0 min 0 W/m 0,0 km/h (0 Bft) 97,96 %
14.04.2021 02:32 0,8 C -0,6 C -2,7 C 80 % 1032,1 hPa 0,0 l/m 0 min 0 min 0 W/m 0,0 km/h (0 Bft) 100,00 %
14.04.2021 02:30 0,8 C -0,6 C -2,2 C 80 % 1032,1 hPa 0,0 l/m 0 min 0 min 0 W/m 0,0 km/h (0 Bft) 97,83 %
14.04.2021 02:28 0,8 C -0,6 C -2,2 C 80 % 1032,1 hPa 0,0 l/m 0 min 0 min 0 W/m 0,0 km/h (0 Bft) 97,87 %
14.04.2021 02:26 0,9 C -0,6 C -2,2 C 80 % 1032,1 hPa 0,0 l/m 0 min 0 min 0 W/m 0,0 km/h (0 Bft) 100,00 %
14.04.2021 02:24 0,9 C 0,0 C -2,2 C 80 % 1032,1 hPa 0,0 l/m 0 min 0 min 0 W/m 0,0 km/h (0 Bft) 100,00 %
14.04.2021 02:22 0,9 C -0,6 C -2,2 C 80 % 1032,1 hPa 0,0 l/m 0 min 0 min 0 W/m 0,0 km/h (0 Bft) 100,00 %
14.04.2021 02:20 1,0 C -0,6 C -2,2 C 79 % 1032,1 hPa 0,0 l/m 0 min 0 min 0 W/m 0,0 km/h (0 Bft) 97,87 %
14.04.2021 02:18 1,0 C -0,6 C -2,2 C 79 % 1032,1 hPa 0,0 l/m 0 min 0 min 0 W/m 0,0 km/h (0 Bft) 100,00 %
14.04.2021 02:16 1,0 C -0,6 C -2,2 C 79 % 1032,1 hPa 0,0 l/m 0 min 0 min 0 W/m 0,0 km/h (0 Bft) 100,00 %
14.04.2021 02:14 1,1 C 0,0 C -2,2 C 79 % 1032,1 hPa 0,0 l/m 0 min 0 min 0 W/m 0,0 km/h (0 Bft) 100,00 %
14.04.2021 02:12 1,1 C 0,0 C -2,2 C 79 % 1032,1 hPa 0,0 l/m 0 min 0 min 0 W/m 0,0 km/h (0 Bft) 100,00 %
14.04.2021 02:10 1,2 C 0,0 C -2,2 C 79 % 1032,0 hPa 0,0 l/m 0 min 0 min 0 W/m 0,0 km/h (0 Bft) 97,83 %
14.04.2021 02:08 1,2 C -0,6 C -2,2 C 79 % 1032,0 hPa 0,0 l/m 0 min 0 min 0 W/m 0,0 km/h (0 Bft) 97,87 %
14.04.2021 02:06 1,3 C -0,6 C -2,2 C 79 % 1032,0 hPa 0,0 l/m 0 min 0 min 0 W/m 0,0 km/h (0 Bft) 100,00 %
14.04.2021 02:04 1,3 C -0,6 C -2,2 C 79 % 1032,1 hPa 0,0 l/m 0 min 0 min 0 W/m 0,0 km/h (0 Bft) 39,39 %
14.04.2021 02:02 1,4 C -0,6 C -2,2 C 79 % 1032,1 hPa 0,0 l/m 0 min 0 min 0 W/m 0,0 km/h (0 Bft) 97,87 %
14.04.2021 02:00 1,4 C 0,0 C -2,2 C 78 % 1032,1 hPa 0,0 l/m 0 min 0 min 0 W/m 0,0 km/h (0 Bft) 100,00 %
14.04.2021 01:58 1,5 C 0,0 C -2,2 C 78 % 1032,1 hPa 0,0 l/m 0 min 0 min 0 W/m 0,0 km/h (0 Bft) 100,00 %
14.04.2021 01:56 1,5 C 0,0 C -2,2 C 78 % 1032,1 hPa 0,0 l/m 0 min 0 min 0 W/m 0,0 km/h (0 Bft) 100,00 %
14.04.2021 01:54 1,5 C 0,0 C -2,2 C 78 % 1032,1 hPa 0,0 l/m 0 min 0 min 0 W/m 0,0 km/h (0 Bft) 100,00 %
14.04.2021 01:52 1,6 C 0,0 C -2,2 C 78 % 1032,1 hPa 0,0 l/m 0 min 0 min 0 W/m 0,0 km/h (0 Bft) 100,00 %
14.04.2021 01:50 1,6 C 0,0 C -2,2 C 78 % 1032,1 hPa 0,0 l/m 0 min 0 min 0 W/m 0,0 km/h (0 Bft) 100,00 %
14.04.2021 01:48 1,7 C 0,0 C -2,2 C 78 % 1032,1 hPa 0,0 l/m 0 min 0 min 0 W/m 0,0 km/h (0 Bft) 100,00 %
14.04.2021 01:46 1,7 C 0,0 C -2,2 C 78 % 1032,1 hPa 0,0 l/m 0 min 0 min 0 W/m 0,0 km/h (0 Bft) 100,00 %
14.04.2021 01:44 1,8 C 0,0 C -2,2 C 78 % 1032,1 hPa 0,0 l/m 0 min 0 min 0 W/m 0,0 km/h (0 Bft) 97,87 %
14.04.2021 01:42 1,8 C 0,0 C -2,2 C 78 % 1032,1 hPa 0,0 l/m 0 min 0 min 0 W/m 0,0 km/h (0 Bft) 100,00 %
14.04.2021 01:40 1,8 C 0,0 C -2,2 C 78 % 1032,1 hPa 0,0 l/m 0 min 0 min 0 W/m 0,0 km/h (0 Bft) 100,00 %
14.04.2021 01:38 1,9 C 0,0 C -2,2 C 78 % 1032,1 hPa 0,0 l/m 0 min 0 min 0 W/m 0,0 km/h (0 Bft) 97,87 %
14.04.2021 01:36 1,9 C 0,0 C -1,6 C 78 % 1032,1 hPa 0,0 l/m 0 min 0 min 0 W/m 0,0 km/h (0 Bft) 95,65 %
14.04.2021 01:34 2,0 C 0,0 C -1,6 C 78 % 1032,1 hPa 0,0 l/m 0 min 0 min 0 W/m 0,0 km/h (0 Bft) 97,87 %
14.04.2021 01:32 2,0 C 0,0 C -1,6 C 77 % 1032,1 hPa 0,0 l/m 0 min 0 min 0 W/m 0,0 km/h (0 Bft) 100,00 %
14.04.2021 01:30 2,0 C 0,6 C -1,6 C 77 % 1032,1 hPa 0,0 l/m 0 min 0 min 0 W/m 0,0 km/h (0 Bft) 97,87 %
14.04.2021 01:28 2,1 C 0,6 C -1,6 C 77 % 1032,1 hPa 0,0 l/m 0 min 0 min 0 W/m 0,0 km/h (0 Bft) 97,87 %
14.04.2021 01:26 2,1 C 0,6 C -1,6 C 77 % 1032,1 hPa 0,0 l/m 0 min 0 min 0 W/m 0,0 km/h (0 Bft) 97,87 %
14.04.2021 01:24 2,1 C 0,6 C -1,6 C 77 % 1032,1 hPa 0,0 l/m 0 min 0 min 0 W/m 0,0 km/h (0 Bft) 97,83 %
14.04.2021 01:22 2,2 C 0,6 C -1,6 C 77 % 1032,2 hPa 0,0 l/m 0 min 0 min 0 W/m 0,0 km/h (0 Bft) 97,87 %
14.04.2021 01:20 2,2 C 0,6 C -1,1 C 77 % 1032,1 hPa 0,0 l/m 0 min 0 min 0 W/m 0,0 km/h (0 Bft) 93,62 %
14.04.2021 01:18 2,3 C 1,1 C -1,1 C 77 % 1032,1 hPa 0,0 l/m 0 min 0 min 0 W/m 0,0 km/h (0 Bft) 97,87 %
14.04.2021 01:16 2,3 C 1,1 C -1,1 C 77 % 1032,1 hPa 0,0 l/m 0 min 0 min 0 W/m 0,0 km/h (0 Bft) 93,62 %
14.04.2021 01:14 2,3 C 1,1 C -1,1 C 77 % 1032,2 hPa 0,0 l/m 0 min 0 min 0 W/m 0,0 km/h (0 Bft) 97,92 %
14.04.2021 01:12 2,4 C 1,1 C -1,1 C 77 % 1032,2 hPa 0,0 l/m 0 min 0 min 0 W/m 0,0 km/h (0 Bft) 97,83 %
14.04.2021 01:10 2,4 C 1,1 C -1,1 C 77 % 1032,2 hPa 0,0 l/m 0 min 0 min 0 W/m 0,0 km/h (0 Bft) 100,00 %
14.04.2021 01:08 2,5 C 1,1 C -1,1 C 77 % 1032,2 hPa 0,0 l/m 0 min 0 min 0 W/m 6,4 km/h (2 Bft) 100,00 %
14.04.2021 01:06 2,5 C 0,6 C -1,1 C 76 % 1032,2 hPa 0,0 l/m 0 min 0 min 0 W/m 3,2 km/h (1 Bft) 97,87 %
14.04.2021 01:04 2,6 C 0,6 C -1,6 C 76 % 1032,2 hPa 0,0 l/m 0 min 0 min 0 W/m 0,0 km/h (0 Bft) 97,87 %
14.04.2021 01:02 2,7 C 0,6 C -1,6 C 76 % 1032,1 hPa 0,0 l/m 0 min 0 min 0 W/m 0,0 km/h (0 Bft) 100,00 %
14.04.2021 01:00 2,8 C 0,6 C -1,1 C 76 % 1032,1 hPa 0,0 l/m 0 min 0 min 0 W/m 0,0 km/h (0 Bft) 100,00 %
14.04.2021 00:58 2,8 C 0,6 C -1,1 C 76 % 1032,2 hPa 0,0 l/m 0 min 0 min 0 W/m 0,0 km/h (0 Bft) 97,87 %
14.04.2021 00:56 2,8 C 0,6 C -1,1 C 75 % 1032,1 hPa 0,0 l/m 0 min 0 min 0 W/m 0,0 km/h (0 Bft) 97,87 %
14.04.2021 00:54 2,9 C 1,1 C -1,1 C 75 % 1032,2 hPa 0,0 l/m 0 min 0 min 0 W/m 0,0 km/h (0 Bft) 100,00 %
14.04.2021 00:52 2,9 C 1,1 C -1,1 C 75 % 1032,2 hPa 0,0 l/m 0 min 0 min 0 W/m 0,0 km/h (0 Bft) 95,74 %
14.04.2021 00:50 3,0 C 1,1 C -1,1 C 74 % 1032,2 hPa 0,0 l/m 0 min 0 min 0 W/m 0,0 km/h (0 Bft) 100,00 %
14.04.2021 00:48 3,0 C 1,1 C -1,1 C 74 % 1032,2 hPa 0,0 l/m 0 min 0 min 0 W/m 0,0 km/h (0 Bft) 100,00 %
14.04.2021 00:46 3,0 C 1,1 C -1,1 C 74 % 1032,2 hPa 0,0 l/m 0 min 0 min 0 W/m 0,0 km/h (0 Bft) 97,87 %
14.04.2021 00:44 3,1 C 1,1 C -1,1 C 73 % 1032,2 hPa 0,0 l/m 0 min 0 min 0 W/m 0,0 km/h (0 Bft) 97,87 %
14.04.2021 00:42 3,1 C 1,1 C -1,1 C 73 % 1032,3 hPa 0,0 l/m 0 min 0 min 0 W/m 0,0 km/h (0 Bft) 97,87 %
14.04.2021 00:40 3,1 C 1,1 C -1,1 C 73 % 1032,3 hPa 0,0 l/m 0 min 0 min 0 W/m 0,0 km/h (0 Bft) 100,00 %
14.04.2021 00:38 3,1 C 1,1 C -1,1 C 72 % 1032,3 hPa 0,0 l/m 0 min 0 min 0 W/m 0,0 km/h (0 Bft) 100,00 %
14.04.2021 00:36 3,2 C 1,1 C -1,1 C 72 % 1032,3 hPa 0,0 l/m 0 min 0 min 0 W/m 0,0 km/h (0 Bft) 100,00 %
14.04.2021 00:34 3,3 C 1,1 C -1,1 C 72 % 1032,3 hPa 0,0 l/m 0 min 0 min 0 W/m 0,0 km/h (0 Bft) 97,87 %
14.04.2021 00:32 3,3 C 1,1 C -1,1 C 72 % 1032,3 hPa 0,0 l/m 0 min 0 min 0 W/m 0,0 km/h (0 Bft) 100,00 %
14.04.2021 00:30 3,3 C 1,1 C -1,1 C 71 % 1032,3 hPa 0,0 l/m 0 min 0 min 0 W/m 0,0 km/h (0 Bft) 100,00 %
14.04.2021 00:28 3,3 C 1,7 C -0,5 C 71 % 1032,3 hPa 0,0 l/m 0 min 0 min 0 W/m 0,0 km/h (0 Bft) 100,00 %
14.04.2021 00:26 3,4 C 1,7 C -0,5 C 70 % 1032,4 hPa 0,0 l/m 0 min 0 min 0 W/m 0,0 km/h (0 Bft) 100,00 %
14.04.2021 00:24 3,4 C 1,7 C -0,5 C 70 % 1032,4 hPa 0,0 l/m 0 min 0 min 0 W/m 0,0 km/h (0 Bft) 97,87 %
14.04.2021 00:22 3,4 C 1,7 C -0,5 C 70 % 1032,4 hPa 0,0 l/m 0 min 0 min 0 W/m 0,0 km/h (0 Bft) 100,00 %
14.04.2021 00:20 3,5 C 1,7 C -0,5 C 69 % 1032,3 hPa 0,0 l/m 0 min 0 min 0 W/m 0,0 km/h (0 Bft) 100,00 %
14.04.2021 00:18 3,5 C 1,7 C -0,5 C 69 % 1032,3 hPa 0,0 l/m 0 min 0 min 0 W/m 0,0 km/h (0 Bft) 100,00 %
14.04.2021 00:16 3,5 C 1,7 C -0,5 C 69 % 1032,4 hPa 0,0 l/m 0 min 0 min 0 W/m 0,0 km/h (0 Bft) 100,00 %
14.04.2021 00:14 3,5 C 1,7 C -0,5 C 69 % 1032,4 hPa 0,0 l/m 0 min 0 min 0 W/m 0,0 km/h (0 Bft) 97,83 %
14.04.2021 00:12 3,6 C 2,2 C -0,5 C 69 % 1032,4 hPa 0,0 l/m 0 min 0 min 0 W/m 0,0 km/h (0 Bft) 100,00 %
14.04.2021 00:10 3,6 C 2,2 C -0,5 C 69 % 1032,4 hPa 0,0 l/m 0 min 0 min 0 W/m 0,0 km/h (0 Bft) 100,00 %
14.04.2021 00:08 3,7 C 2,2 C 0,0 C 69 % 1032,4 hPa 0,0 l/m 0 min 0 min 0 W/m 0,0 km/h (0 Bft) 522,03 %
14.04.2021 00:04 3,8 C 2,2 C 0,0 C 68 % 1032,4 hPa 0,0 l/m 0 min 0 min 0 W/m 0,0 km/h (0 Bft) 95,00 %
14.04.2021 00:02 3,9 C 2,2 C 0,0 C 68 % 1032,4 hPa 0,0 l/m 0 min 0 min 0 W/m 0,0 km/h (0 Bft) 9,09 %
14.04.2021 00:00 3,9 C 2,2 C 0,0 C 68 % 1032,5 hPa 0,0 l/m 0 min 0 min 0 W/m 0,0 km/h (0 Bft) 97,83 %
13.04.2021 23:58 3,9 C 2,2 C 0,0 C 68 % 1032,4 hPa 0,0 l/m 0 min 0 min 0 W/m 0,0 km/h (0 Bft) 100,00 %
13.04.2021 23:56 4,0 C 2,2 C 0,0 C 68 % 1032,4 hPa 0,0 l/m 0 min 0 min 0 W/m 0,0 km/h (0 Bft) 97,87 %
13.04.2021 23:54 4,0 C 2,2 C 0,0 C 68 % 1032,4 hPa 0,0 l/m 0 min 0 min 0 W/m 0,0 km/h (0 Bft) 95,74 %
13.04.2021 23:52 4,0 C 2,2 C 0,0 C 67 % 1032,4 hPa 0,0 l/m 0 min 0 min 0 W/m 0,0 km/h (0 Bft) 97,87 %
13.04.2021 23:50 4,1 C 2,2 C 0,0 C 67 % 1032,4 hPa 0,0 l/m 0 min 0 min 0 W/m 0,0 km/h (0 Bft) 51,35 %
13.04.2021 23:48 4,1 C 2,2 C 0,0 C 67 % 1032,4 hPa 0,0 l/m 0 min 0 min 0 W/m 0,0 km/h (0 Bft) 93,48 %
13.04.2021 23:46 4,1 C 2,8 C 0,0 C 66 % 1032,4 hPa 0,0 l/m 0 min 0 min 0 W/m 0,0 km/h (0 Bft) 93,62 %
13.04.2021 23:44 4,2 C 2,8 C 0,0 C 66 % 1032,4 hPa 0,0 l/m 0 min 0 min 0 W/m 0,0 km/h (0 Bft) 97,87 %
13.04.2021 23:42 4,3 C 2,8 C 0,0 C 66 % 1032,4 hPa 0,0 l/m 0 min 0 min 0 W/m 0,0 km/h (0 Bft) 93,62 %
13.04.2021 23:40 4,3 C 2,8 C 0,0 C 66 % 1032,4 hPa 0,0 l/m 0 min 0 min 0 W/m 0,0 km/h (0 Bft) 95,74 %
13.04.2021 23:38 4,3 C 2,8 C 0,0 C 66 % 1032,4 hPa 0,0 l/m 0 min 0 min 0 W/m 0,0 km/h (0 Bft) 95,74 %
13.04.2021 23:36 4,4 C 2,8 C 0,6 C 66 % 1032,5 hPa 0,0 l/m 0 min 0 min 0 W/m 0,0 km/h (0 Bft) 95,65 %
13.04.2021 23:34 4,4 C 2,8 C 0,6 C 66 % 1032,5 hPa 0,0 l/m 0 min 0 min 0 W/m 0,0 km/h (0 Bft) 95,74 %
13.04.2021 23:32 4,4 C 2,8 C 0,6 C 66 % 1032,5 hPa 0,0 l/m 0 min 0 min 0 W/m 3,2 km/h (1 Bft) 95,74 %
13.04.2021 23:30 4,5 C 2,8 C 0,6 C 66 % 1032,5 hPa 0,0 l/m 0 min 0 min 0 W/m 3,2 km/h (1 Bft) 93,62 %
13.04.2021 23:28 4,5 C 2,8 C 0,6 C 66 % 1032,5 hPa 0,0 l/m 0 min 0 min 0 W/m 6,4 km/h (2 Bft) 95,74 %
13.04.2021 23:26 4,5 C 2,8 C 0,6 C 65 % 1032,4 hPa 0,0 l/m 0 min 0 min 0 W/m 0,0 km/h (0 Bft) 95,74 %
13.04.2021 23:24 4,6 C 2,8 C 0,6 C 65 % 1032,5 hPa 0,0 l/m 0 min 0 min 0 W/m 0,0 km/h (0 Bft) 95,65 %
13.04.2021 23:22 4,6 C 2,8 C 0,6 C 65 % 1032,5 hPa 0,0 l/m 0 min 0 min 0 W/m 0,0 km/h (0 Bft) 97,87 %
13.04.2021 23:20 4,6 C 3,3 C 0,6 C 64 % 1032,5 hPa 0,0 l/m 0 min 0 min 0 W/m 3,2 km/h (1 Bft) 95,74 %
13.04.2021 23:18 4,6 C 3,3 C 0,6 C 65 % 1032,5 hPa 0,0 l/m 0 min 0 min 0 W/m 3,2 km/h (1 Bft) 98,18 %
13.04.2021 23:16 4,7 C 3,3 C 1,1 C 65 % 1032,5 hPa 0,0 l/m 0 min 0 min 0 W/m 3,2 km/h (1 Bft) 95,74 %
13.04.2021 23:14 4,7 C 3,3 C 1,1 C 64 % 1032,5 hPa 0,0 l/m 0 min 0 min 0 W/m 3,2 km/h (1 Bft) 91,49 %
13.04.2021 23:12 4,8 C 3,3 C 1,1 C 64 % 1032,4 hPa 0,0 l/m 0 min 0 min 0 W/m 6,4 km/h (2 Bft) 95,74 %
13.04.2021 23:10 4,8 C 3,3 C 1,1 C 64 % 1032,5 hPa 0,0 l/m 0 min 0 min 0 W/m 3,2 km/h (1 Bft) 93,48 %
13.04.2021 23:08 4,8 C 3,3 C 1,1 C 64 % 1032,5 hPa 0,0 l/m 0 min 0 min 0 W/m 3,2 km/h (1 Bft) 95,74 %
13.04.2021 23:06 4,8 C 3,3 C 1,1 C 64 % 1032,5 hPa 0,0 l/m 0 min 0 min 0 W/m 6,4 km/h (2 Bft) 91,49 %
13.04.2021 23:04 4,9 C 3,3 C 1,1 C 64 % 1032,4 hPa 0,0 l/m 0 min 0 min 0 W/m 3,2 km/h (1 Bft) 95,74 %
13.04.2021 23:02 4,9 C 3,9 C 1,1 C 64 % 1032,5 hPa 0,0 l/m 0 min 0 min 0 W/m 6,4 km/h (2 Bft) 95,74 %
13.04.2021 23:00 4,9 C 3,9 C 1,1 C 64 % 1032,4 hPa 0,0 l/m 0 min 0 min 0 W/m 3,2 km/h (1 Bft) 95,74 %
_ Min-Zeit 05:32 03:34 03:36 17:26 19:02 - - - - 23:22 00:02
Minimum _ -1,0 C -1,7 C -3,3 C 51 % 1029,3 hPa - - - - 0,0 km/h (0 Bft) 9,09 %
_ Max-Zeit 16:30 16:24 12:08 07:28 23:02 23:00 16:10 10:08 13:06 13:50 00:08
Maximum _ 11,3 C 19,4 C 16,7 C 92 % 1032,5 hPa 0,0 l/m 5 min 2 min 1030 W/m 41,8 km/h
N-NO (6 Bft)
522,03 %
Durchschnitt _ 4,7 C 5,5 C 2,3 C 74 % 1031,3 hPa #0,0 l/m #6:26 h #20 min. 308 W/m 6,6 km/h (2 Bft) 98,26 %
© 2021 W. Hausmann